Wetterdaten: aktuell Mittwoch, 08.04.2020 19:58
Datum Zeit Temp. 2m Temp. 5cm Temp. -10cm Feuchte 2m Luftdruck Regen Wind Richtung Richtung Taupunkt Windchill Windben
08.04.2020 19:58 11,7 C 6,2 C 10,8 C 23 % 1024,3 hPa 0,0 l/m 4,2 km/h (1 Bft) O 90 -8,7 C 11,7 C 8,9 km/h (2 Bft)
08.04.2020 19:56 12,9 C 6,7 C 10,9 C 15 % 1024,3 hPa 0,0 l/m 4,3 km/h (1 Bft) NW 315 -13,1 C 12,9 C 0,0 km/h (0 Bft)
08.04.2020 19:54 13,0 C 7,1 C 10,9 C 16 % 1024,3 hPa 0,0 l/m 5,6 km/h (1 Bft) N-NW 337 -12,2 C 13,0 C 5,2 km/h (1 Bft)
08.04.2020 19:52 12,9 C 8,5 C 10,9 C 15 % 1024,3 hPa 0,0 l/m 5,5 km/h (1 Bft) O-NO 67 -13,1 C 12,9 C 6,8 km/h (2 Bft)
08.04.2020 19:50 14,1 C 9,9 C 10,9 C 15 % 1024,3 hPa 0,0 l/m 5,0 km/h (1 Bft) O-NO 67 -12,1 C 14,1 C 13,1 km/h (3 Bft)
08.04.2020 19:48 13,5 C 8,5 C 10,9 C 16 % 1024,3 hPa 0,0 l/m 5,0 km/h (1 Bft) SO 135 -11,8 C 13,5 C 2,5 km/h (1 Bft)
08.04.2020 19:46 14,0 C 8,8 C 10,9 C 15 % 1024,1 hPa 0,0 l/m 5,6 km/h (1 Bft) NO 45 -12,2 C 14,0 C 3,9 km/h (1 Bft)
08.04.2020 19:44 14,1 C 8,7 C 10,9 C 15 % 1024,1 hPa 0,0 l/m 4,8 km/h (1 Bft) SW 225 -12,1 C 14,1 C 0,0 km/h (0 Bft)
08.04.2020 19:42 13,5 C 8,2 C 10,9 C 16 % 1024,1 hPa 0,0 l/m 4,5 km/h (1 Bft) NO 45 -11,8 C 13,5 C 6,2 km/h (2 Bft)
08.04.2020 19:40 13,8 C 8,2 C 11,0 C 16 % 1024,1 hPa 0,0 l/m 5,0 km/h (1 Bft) O-NO 67 -11,6 C 13,8 C 11,6 km/h (2 Bft)
08.04.2020 19:38 13,3 C 7,8 C 11,0 C 16 % 1024,1 hPa 0,0 l/m 4,7 km/h (1 Bft) NO 45 -12,0 C 13,3 C 12,0 km/h (2 Bft)
08.04.2020 19:36 14,0 C 8,9 C 11,0 C 15 % 1024,1 hPa 0,0 l/m 5,1 km/h (1 Bft) S-SO 157 -12,2 C 14,0 C 8,5 km/h (2 Bft)
08.04.2020 19:34 14,0 C 8,4 C 11,0 C 15 % 1024,1 hPa 0,0 l/m 5,6 km/h (1 Bft) O-NO 67 -12,2 C 14,0 C 6,2 km/h (2 Bft)
08.04.2020 19:32 14,4 C 9,3 C 11,0 C 15 % 1024,1 hPa 0,0 l/m 5,3 km/h (1 Bft) NW 315 -11,9 C 14,4 C 0,0 km/h (0 Bft)
08.04.2020 19:30 14,7 C 10,0 C 11,0 C 15 % 1024,1 hPa 0,0 l/m 6,3 km/h (2 Bft) O-SO 112 -11,6 C 14,7 C 13,3 km/h (3 Bft)
08.04.2020 19:28 14,7 C 9,9 C 11,0 C 15 % 1024,1 hPa 0,0 l/m 6,4 km/h (2 Bft) NO 45 -11,6 C 14,7 C 3,1 km/h (1 Bft)
08.04.2020 19:26 15,0 C 10,4 C 11,0 C 14 % 1023,8 hPa 0,0 l/m 6,8 km/h (2 Bft) O 90 -12,2 C 14,8 C 25,5 km/h (4 Bft)
08.04.2020 19:24 15,2 C 11,7 C 11,1 C 14 % 1023,8 hPa 0,0 l/m 6,0 km/h (2 Bft) O-NO 67 -12,1 C 15,2 C 10,2 km/h (2 Bft)
08.04.2020 19:22 15,1 C 10,6 C 11,1 C 14 % 1023,8 hPa 0,0 l/m 6,8 km/h (2 Bft) S-SW 202 -12,2 C 14,9 C 4,6 km/h (1 Bft)
08.04.2020 19:20 15,1 C 11,0 C 11,1 C 14 % 1023,8 hPa 0,0 l/m 6,8 km/h (2 Bft) O-SO 112 -12,2 C 14,9 C 12,9 km/h (3 Bft)
08.04.2020 19:18 15,3 C 11,4 C 11,1 C 14 % 1023,8 hPa 0,0 l/m 6,9 km/h (2 Bft) O-NO 67 -12,0 C 15,0 C 11,2 km/h (2 Bft)
08.04.2020 19:16 15,5 C 11,5 C 11,1 C 14 % 1023,8 hPa 0,0 l/m 6,9 km/h (2 Bft) O 90 -11,8 C 15,2 C 11,6 km/h (2 Bft)
08.04.2020 19:14 15,6 C 11,7 C 11,1 C 14 % 1023,8 hPa 0,0 l/m 6,3 km/h (2 Bft) O-NO 67 -11,8 C 15,6 C 11,2 km/h (2 Bft)
08.04.2020 19:12 15,6 C 11,9 C 11,1 C 14 % 1023,8 hPa 0,0 l/m 5,8 km/h (2 Bft) O-NO 67 -11,8 C 15,6 C 13,7 km/h (3 Bft)
08.04.2020 19:10 15,7 C 11,7 C 11,1 C 14 % 1023,8 hPa 0,0 l/m 6,1 km/h (2 Bft) O-NO 67 -11,7 C 15,7 C 12,4 km/h (3 Bft)
08.04.2020 19:08 15,7 C 12,1 C 11,1 C 14 % 1023,8 hPa 0,0 l/m 6,9 km/h (2 Bft) O-NO 67 -11,7 C 15,4 C 13,7 km/h (3 Bft)
08.04.2020 19:06 15,5 C 12,1 C 11,1 C 14 % 1023,4 hPa 0,0 l/m 6,8 km/h (2 Bft) O 90 -11,8 C 15,3 C 10,4 km/h (2 Bft)
08.04.2020 19:04 15,8 C 11,0 C 11,1 C 14 % 1023,4 hPa 0,0 l/m 8,0 km/h (2 Bft) W 270 -11,6 C 14,9 C 4,6 km/h (1 Bft)
08.04.2020 19:02 15,8 C 11,6 C 11,1 C 14 % 1023,4 hPa 0,0 l/m 8,2 km/h (2 Bft) O-SO 112 -11,6 C 14,8 C 8,9 km/h (2 Bft)
08.04.2020 19:00 16,2 C 12,5 C 11,2 C 15 % 1023,4 hPa 0,0 l/m 8,2 km/h (2 Bft) O-NO 67 -10,4 C 15,3 C 12,7 km/h (3 Bft)
08.04.2020 18:58 16,3 C 12,9 C 11,2 C 15 % 1023,4 hPa 0,0 l/m 7,4 km/h (2 Bft) SO 135 -10,4 C 15,8 C 16,2 km/h (3 Bft)
08.04.2020 18:56 16,3 C 13,1 C 11,2 C 15 % 1023,4 hPa 0,0 l/m 6,8 km/h (2 Bft) NO 45 -10,4 C 16,1 C 6,4 km/h (2 Bft)
08.04.2020 18:54 16,5 C 12,8 C 11,1 C 15 % 1023,4 hPa 0,0 l/m 7,2 km/h (2 Bft) O 90 -10,2 C 16,1 C 9,1 km/h (2 Bft)
08.04.2020 18:52 16,6 C 13,7 C 11,1 C 15 % 1023,4 hPa 0,0 l/m 7,2 km/h (2 Bft) O-NO 67 -10,1 C 16,2 C 10,0 km/h (2 Bft)
08.04.2020 18:50 16,7 C 13,2 C 11,1 C 15 % 1023,4 hPa 0,0 l/m 6,1 km/h (2 Bft) O-SO 112 -10,0 C 16,7 C 2,7 km/h (1 Bft)
08.04.2020 18:48 16,9 C 12,6 C 11,1 C 15 % 1023,4 hPa 0,0 l/m 6,1 km/h (2 Bft) O-NO 67 -9,9 C 16,9 C 20,7 km/h (4 Bft)
08.04.2020 18:46 16,9 C 13,3 C 11,1 C 15 % 1023,4 hPa 0,0 l/m 6,0 km/h (2 Bft) NO 45 -9,9 C 16,9 C 13,7 km/h (3 Bft)
08.04.2020 18:44 17,0 C 13,6 C 11,1 C 15 % 1023,4 hPa 0,0 l/m 6,3 km/h (2 Bft) O-NO 67 -9,8 C 17,0 C 18,9 km/h (3 Bft)
08.04.2020 18:42 17,1 C 13,7 C 11,1 C 15 % 1023,4 hPa 0,0 l/m 5,3 km/h (1 Bft) O 90 -9,7 C 17,1 C 9,7 km/h (2 Bft)
08.04.2020 18:40 17,4 C 13,2 C 11,1 C 15 % 1023,4 hPa 0,0 l/m 5,1 km/h (1 Bft) O-NO 67 -9,5 C 17,4 C 6,2 km/h (2 Bft)
08.04.2020 18:38 17,6 C 13,1 C 11,1 C 15 % 1023,4 hPa 0,0 l/m 6,3 km/h (2 Bft) NO 45 -9,3 C 17,6 C 10,2 km/h (2 Bft)
08.04.2020 18:36 17,4 C 13,7 C 11,1 C 15 % 1023,4 hPa 0,0 l/m 6,9 km/h (2 Bft) O-NO 67 -9,5 C 17,2 C 11,2 km/h (2 Bft)
08.04.2020 18:34 17,2 C 13,6 C 11,1 C 15 % 1023,4 hPa 0,0 l/m 6,3 km/h (2 Bft) NO 45 -9,6 C 17,2 C 7,5 km/h (2 Bft)
08.04.2020 18:32 17,5 C 13,3 C 11,1 C 15 % 1023,4 hPa 0,0 l/m 6,4 km/h (2 Bft) W-NW 292 -9,4 C 17,5 C 14,3 km/h (3 Bft)
08.04.2020 18:30 17,5 C 13,4 C 11,1 C 15 % 1023,4 hPa 0,0 l/m 6,1 km/h (2 Bft) W-NW 292 -9,4 C 17,5 C 7,0 km/h (2 Bft)
08.04.2020 18:28 17,4 C 13,8 C 11,1 C 15 % 1023,4 hPa 0,0 l/m 5,8 km/h (2 Bft) N-NO 22 -9,5 C 17,4 C 12,2 km/h (2 Bft)
08.04.2020 18:26 17,4 C 14,0 C 11,1 C 15 % 1023,6 hPa 0,0 l/m 4,3 km/h (1 Bft) SO 135 -9,5 C 17,4 C 6,2 km/h (2 Bft)
08.04.2020 18:24 17,9 C 14,0 C 11,1 C 15 % 1023,6 hPa 0,0 l/m 4,2 km/h (1 Bft) SO 135 -9,1 C 17,9 C 16,6 km/h (3 Bft)
08.04.2020 18:22 17,9 C 13,7 C 11,1 C 15 % 1023,6 hPa 0,0 l/m 3,7 km/h (1 Bft) O-SO 112 -9,1 C 17,9 C 3,5 km/h (1 Bft)
08.04.2020 18:20 18,2 C 13,8 C 11,1 C 14 % 1023,6 hPa 0,0 l/m 4,0 km/h (1 Bft) W 270 -9,7 C 18,2 C 4,6 km/h (1 Bft)
08.04.2020 18:18 18,3 C 14,0 C 11,1 C 14 % 1023,6 hPa 0,0 l/m 3,7 km/h (1 Bft) S-SO 157 -9,6 C 18,3 C 5,2 km/h (1 Bft)
08.04.2020 18:16 18,4 C 13,8 C 11,1 C 14 % 1023,6 hPa 0,0 l/m 4,0 km/h (1 Bft) N-NO 22 -9,6 C 18,4 C 10,0 km/h (2 Bft)
08.04.2020 18:14 18,4 C 13,9 C 11,1 C 14 % 1023,6 hPa 0,0 l/m 4,0 km/h (1 Bft) O-SO 112 -9,6 C 18,4 C 7,1 km/h (2 Bft)
08.04.2020 18:12 18,4 C 14,6 C 11,1 C 14 % 1023,6 hPa 0,0 l/m 4,5 km/h (1 Bft) S-SW 202 -9,6 C 18,4 C 7,5 km/h (2 Bft)
08.04.2020 18:10 18,5 C 15,4 C 11,1 C 14 % 1023,6 hPa 0,0 l/m 4,0 km/h (1 Bft) SW 225 -9,5 C 18,5 C 1,9 km/h (1 Bft)
08.04.2020 18:08 18,4 C 14,9 C 11,1 C 14 % 1023,6 hPa 0,0 l/m 4,3 km/h (1 Bft) W-NW 292 -9,6 C 18,4 C 4,4 km/h (1 Bft)
08.04.2020 18:06 18,6 C 15,1 C 11,1 C 14 % 1023,5 hPa 0,0 l/m 4,7 km/h (1 Bft) O-SO 112 -9,4 C 18,6 C 8,3 km/h (2 Bft)
08.04.2020 18:04 18,6 C 14,9 C 11,1 C 14 % 1023,5 hPa 0,0 l/m 5,0 km/h (1 Bft) O-NO 67 -9,4 C 18,6 C 5,6 km/h (1 Bft)
08.04.2020 18:02 18,8 C 15,0 C 11,1 C 14 % 1023,5 hPa 0,0 l/m 5,5 km/h (1 Bft) S 180 -9,2 C 18,8 C 12,0 km/h (2 Bft)
08.04.2020 18:00 18,7 C 15,1 C 11,0 C 14 % 1023,5 hPa 0,0 l/m 5,1 km/h (1 Bft) W 270 -9,3 C 18,7 C 6,8 km/h (2 Bft)
08.04.2020 17:58 18,6 C 15,0 C 11,0 C 14 % 1023,5 hPa 0,0 l/m 5,3 km/h (1 Bft) O-NO 67 -9,4 C 18,6 C 11,0 km/h (2 Bft)
08.04.2020 17:56 18,5 C 14,9 C 11,0 C 14 % 1023,5 hPa 0,0 l/m 5,5 km/h (1 Bft) NW 315 -9,5 C 18,5 C 4,2 km/h (1 Bft)
08.04.2020 17:54 18,9 C 15,5 C 11,0 C 14 % 1023,5 hPa 0,0 l/m 5,8 km/h (2 Bft) SW 225 -9,2 C 18,9 C 12,4 km/h (3 Bft)
08.04.2020 17:52 19,0 C 15,7 C 11,0 C 13 % 1023,5 hPa 0,0 l/m 4,7 km/h (1 Bft) S-SO 157 -10,0 C 19,0 C 10,6 km/h (2 Bft)
08.04.2020 17:50 19,3 C 15,6 C 11,0 C 13 % 1023,5 hPa 0,0 l/m 4,7 km/h (1 Bft) S 180 -9,8 C 19,3 C 6,6 km/h (2 Bft)
08.04.2020 17:48 19,3 C 15,7 C 11,0 C 13 % 1023,5 hPa 0,0 l/m 5,5 km/h (1 Bft) S-SW 202 -9,8 C 19,3 C 3,7 km/h (1 Bft)
08.04.2020 17:46 19,3 C 15,6 C 11,0 C 13 % 1023,6 hPa 0,0 l/m 5,5 km/h (1 Bft) S-SO 157 -9,8 C 19,3 C 10,8 km/h (2 Bft)
08.04.2020 17:44 19,3 C 15,6 C 11,0 C 13 % 1023,6 hPa 0,0 l/m 5,5 km/h (1 Bft) S 180 -9,8 C 19,3 C 11,8 km/h (2 Bft)
08.04.2020 17:42 19,0 C 15,6 C 10,9 C 13 % 1023,6 hPa 0,0 l/m 5,3 km/h (1 Bft) O-NO 67 -10,0 C 19,0 C 5,8 km/h (2 Bft)
08.04.2020 17:40 18,9 C 15,8 C 10,9 C 14 % 1023,6 hPa 0,0 l/m 5,6 km/h (1 Bft) N 360 -9,2 C 18,9 C 5,0 km/h (1 Bft)
08.04.2020 17:38 19,1 C 15,6 C 10,9 C 13 % 1023,6 hPa 0,0 l/m 5,1 km/h (1 Bft) SO 135 -9,9 C 19,1 C 11,2 km/h (2 Bft)
08.04.2020 17:36 19,2 C 16,0 C 10,9 C 13 % 1023,6 hPa 0,0 l/m 5,3 km/h (1 Bft) SW 225 -9,9 C 19,2 C 6,0 km/h (2 Bft)
08.04.2020 17:34 19,3 C 15,9 C 10,9 C 13 % 1023,6 hPa 0,0 l/m 5,6 km/h (1 Bft) NW 315 -9,8 C 19,3 C 11,0 km/h (2 Bft)
08.04.2020 17:32 19,2 C 16,0 C 10,9 C 13 % 1023,6 hPa 0,0 l/m 6,1 km/h (2 Bft) O-NO 67 -9,9 C 19,2 C 10,6 km/h (2 Bft)
08.04.2020 17:30 19,5 C 15,9 C 10,9 C 13 % 1023,6 hPa 0,0 l/m 5,8 km/h (2 Bft) S-SW 202 -9,6 C 19,5 C 8,5 km/h (2 Bft)
08.04.2020 17:28 19,5 C 16,2 C 10,8 C 13 % 1023,6 hPa 0,0 l/m 5,8 km/h (2 Bft) NO 45 -9,6 C 19,5 C 13,7 km/h (3 Bft)
08.04.2020 17:26 19,5 C 16,3 C 10,8 C 13 % 1023,7 hPa 0,0 l/m 5,0 km/h (1 Bft) S-SW 202 -9,6 C 19,5 C 8,3 km/h (2 Bft)
08.04.2020 17:24 19,4 C 16,0 C 10,8 C 13 % 1023,7 hPa 0,0 l/m 5,3 km/h (1 Bft) S-SW 202 -9,7 C 19,4 C 7,5 km/h (2 Bft)
08.04.2020 17:22 19,2 C 16,0 C 10,8 C 13 % 1023,7 hPa 0,0 l/m 5,6 km/h (1 Bft) S-SO 157 -9,9 C 19,2 C 12,4 km/h (3 Bft)
08.04.2020 17:20 19,3 C 16,4 C 10,8 C 13 % 1023,7 hPa 0,0 l/m 6,0 km/h (2 Bft) NW 315 -9,8 C 19,3 C 9,8 km/h (2 Bft)
08.04.2020 17:18 19,5 C 16,4 C 10,8 C 13 % 1023,7 hPa 0,0 l/m 5,8 km/h (2 Bft) S-SW 202 -9,6 C 19,5 C 6,2 km/h (2 Bft)
08.04.2020 17:16 19,6 C 16,3 C 10,7 C 13 % 1023,7 hPa 0,0 l/m 5,5 km/h (1 Bft) SO 135 -9,5 C 19,6 C 5,6 km/h (1 Bft)
08.04.2020 17:14 19,5 C 16,3 C 10,7 C 13 % 1023,7 hPa 0,0 l/m 5,8 km/h (2 Bft) S-SO 157 -9,6 C 19,5 C 10,2 km/h (2 Bft)
08.04.2020 17:12 19,4 C 16,9 C 10,7 C 13 % 1023,7 hPa 0,0 l/m 6,0 km/h (2 Bft) S-SO 157 -9,7 C 19,4 C 6,6 km/h (2 Bft)
08.04.2020 17:10 19,5 C 16,9 C 10,7 C 13 % 1023,7 hPa 0,0 l/m 5,6 km/h (1 Bft) S-SW 202 -9,6 C 19,5 C 16,0 km/h (3 Bft)
08.04.2020 17:08 19,5 C 16,8 C 10,7 C 13 % 1023,7 hPa 0,0 l/m 6,0 km/h (2 Bft) N-NW 337 -9,6 C 19,5 C 3,5 km/h (1 Bft)
08.04.2020 17:06 19,5 C 16,5 C 10,7 C 13 % 1023,9 hPa 0,0 l/m 6,9 km/h (2 Bft) W-SW 247 -9,6 C 19,3 C 6,2 km/h (2 Bft)
08.04.2020 17:04 19,3 C 16,6 C 10,6 C 13 % 1023,9 hPa 0,0 l/m 7,2 km/h (2 Bft) SO 135 -9,8 C 19,0 C 9,5 km/h (2 Bft)
08.04.2020 17:02 19,5 C 17,0 C 10,6 C 13 % 1023,9 hPa 0,0 l/m 6,3 km/h (2 Bft) S-SW 202 -9,6 C 19,5 C 7,5 km/h (2 Bft)
08.04.2020 17:00 19,6 C 17,2 C 10,6 C 13 % 1023,9 hPa 0,0 l/m 6,9 km/h (2 Bft) S-SW 202 -9,5 C 19,4 C 10,4 km/h (2 Bft)
08.04.2020 16:58 19,4 C 17,1 C 10,6 C 13 % 1023,9 hPa 0,0 l/m 7,2 km/h (2 Bft) O-SO 112 -9,7 C 19,1 C 10,2 km/h (2 Bft)
08.04.2020 16:56 19,1 C 17,9 C 10,6 C 13 % 1023,9 hPa 0,0 l/m 6,9 km/h (2 Bft) O 90 -9,9 C 18,9 C 15,8 km/h (3 Bft)
08.04.2020 16:54 18,9 C 17,8 C 10,6 C 14 % 1023,9 hPa 0,0 l/m 5,6 km/h (1 Bft) O-NO 67 -9,2 C 18,9 C 4,8 km/h (1 Bft)
08.04.2020 16:52 19,2 C 17,0 C 10,6 C 13 % 1023,9 hPa 0,0 l/m 6,1 km/h (2 Bft) S-SO 157 -9,9 C 19,2 C 11,4 km/h (2 Bft)
08.04.2020 16:50 18,9 C 17,3 C 10,6 C 14 % 1023,9 hPa 0,0 l/m 5,6 km/h (1 Bft) O-SO 112 -9,2 C 18,9 C 13,3 km/h (3 Bft)
08.04.2020 16:48 19,6 C 18,7 C 10,6 C 13 % 1023,9 hPa 0,0 l/m 5,0 km/h (1 Bft) S 180 -9,5 C 19,6 C 8,9 km/h (2 Bft)
08.04.2020 16:46 19,5 C 19,4 C 10,6 C 13 % 1023,9 hPa 0,0 l/m 5,5 km/h (1 Bft) O-SO 112 -9,6 C 19,5 C 5,8 km/h (2 Bft)
08.04.2020 16:44 19,1 C 18,9 C 10,5 C 13 % 1023,9 hPa 0,0 l/m 5,1 km/h (1 Bft) NO 45 -9,9 C 19,1 C 8,3 km/h (2 Bft)
08.04.2020 16:42 19,1 C 18,8 C 10,5 C 13 % 1023,9 hPa 0,0 l/m 4,3 km/h (1 Bft) NO 45 -9,9 C 19,1 C 11,2 km/h (2 Bft)
08.04.2020 16:40 19,5 C 19,4 C 10,5 C 13 % 1023,9 hPa 0,0 l/m 4,2 km/h (1 Bft) O-NO 67 -9,6 C 19,5 C 13,1 km/h (3 Bft)
08.04.2020 16:38 19,6 C 19,7 C 10,5 C 13 % 1023,9 hPa 0,0 l/m 3,4 km/h (1 Bft) NO 45 -9,5 C 19,6 C 11,8 km/h (2 Bft)
08.04.2020 16:36 19,6 C 20,7 C 10,5 C 13 % 1023,9 hPa 0,0 l/m 3,5 km/h (1 Bft) O-NO 67 -9,5 C 19,6 C 13,7 km/h (3 Bft)
08.04.2020 16:34 19,5 C 23,6 C 10,5 C 13 % 1023,9 hPa 0,0 l/m 4,3 km/h (1 Bft) N-NO 22 -9,6 C 19,5 C 3,9 km/h (1 Bft)
08.04.2020 16:32 19,6 C 23,4 C 10,5 C 13 % 1023,9 hPa 0,0 l/m 6,4 km/h (2 Bft) S 180 -9,5 C 19,6 C 5,0 km/h (1 Bft)
08.04.2020 16:30 19,4 C 23,9 C 10,5 C 13 % 1023,9 hPa 0,0 l/m 7,4 km/h (2 Bft) S-SO 157 -9,7 C 19,0 C 0,0 km/h (0 Bft)
08.04.2020 16:28 19,5 C 23,9 C 10,5 C 13 % 1023,9 hPa 0,0 l/m 8,4 km/h (2 Bft) SO 135 -9,6 C 18,7 C 5,2 km/h (1 Bft)
08.04.2020 16:26 19,1 C 23,6 C 10,5 C 13 % 1024,2 hPa 0,0 l/m 8,5 km/h (2 Bft) O-NO 67 -9,9 C 18,2 C 7,7 km/h (2 Bft)
08.04.2020 16:24 18,5 C 23,5 C 10,5 C 14 % 1024,2 hPa 0,0 l/m 7,7 km/h (2 Bft) O-NO 67 -9,5 C 17,9 C 18,2 km/h (3 Bft)
08.04.2020 16:22 18,6 C 23,5 C 10,5 C 14 % 1024,2 hPa 0,0 l/m 6,6 km/h (2 Bft) O-NO 67 -9,4 C 18,5 C 9,1 km/h (2 Bft)
08.04.2020 16:20 18,8 C 23,9 C 10,5 C 14 % 1024,2 hPa 0,0 l/m 5,5 km/h (1 Bft) NO 45 -9,2 C 18,8 C 12,2 km/h (2 Bft)
08.04.2020 16:18 19,1 C 24,0 C 10,5 C 13 % 1024,2 hPa 0,0 l/m 5,6 km/h (1 Bft) O 90 -9,9 C 19,1 C 7,9 km/h (2 Bft)
08.04.2020 16:16 19,4 C 24,6 C 10,3 C 13 % 1024,2 hPa 0,0 l/m 6,0 km/h (2 Bft) NO 45 -9,7 C 19,4 C 6,8 km/h (2 Bft)
08.04.2020 16:14 19,7 C 24,5 C 10,3 C 13 % 1024,2 hPa 0,0 l/m 7,2 km/h (2 Bft) SW 225 -9,5 C 19,4 C 6,2 km/h (2 Bft)
08.04.2020 16:12 19,6 C 23,6 C 10,3 C 13 % 1024,2 hPa 0,0 l/m 8,0 km/h (2 Bft) S-SO 157 -9,5 C 18,9 C 14,1 km/h (3 Bft)
08.04.2020 16:10 19,6 C 24,9 C 10,3 C 13 % 1024,2 hPa 0,0 l/m 9,0 km/h (2 Bft) O-NO 67 -9,5 C 18,6 C 7,5 km/h (2 Bft)
08.04.2020 16:08 19,7 C 25,1 C 10,3 C 14 % 1024,2 hPa 0,0 l/m 9,0 km/h (2 Bft) S-SW 202 -8,5 C 18,7 C 12,2 km/h (2 Bft)
08.04.2020 16:06 19,3 C 23,3 C 10,3 C 14 % 1024,6 hPa 0,0 l/m 8,9 km/h (2 Bft) S-SO 157 -8,8 C 18,3 C 11,6 km/h (2 Bft)
08.04.2020 16:04 19,1 C 22,5 C 10,2 C 14 % 1024,6 hPa 0,0 l/m 8,2 km/h (2 Bft) S-SO 157 -9,0 C 18,3 C 20,9 km/h (4 Bft)
08.04.2020 16:02 19,0 C 22,3 C 10,2 C 14 % 1024,6 hPa 0,0 l/m 7,2 km/h (2 Bft) S-SO 157 -9,1 C 18,6 C 17,8 km/h (3 Bft)
08.04.2020 16:00 19,1 C 24,2 C 10,2 C 14 % 1024,6 hPa 0,0 l/m 7,4 km/h (2 Bft) S-SW 202 -9,0 C 18,7 C 9,5 km/h (2 Bft)
08.04.2020 15:58 19,1 C 24,4 C 10,3 C 14 % 1024,6 hPa 0,0 l/m 6,1 km/h (2 Bft) SW 225 -9,0 C 19,1 C 17,0 km/h (3 Bft)
08.04.2020 15:56 18,7 C 24,6 C 10,3 C 14 % 1024,6 hPa 0,0 l/m 6,0 km/h (2 Bft) O-NO 67 -9,3 C 18,7 C 9,3 km/h (2 Bft)
08.04.2020 15:54 18,5 C 23,8 C 10,3 C 14 % 1024,6 hPa 0,0 l/m 6,3 km/h (2 Bft) NO 45 -9,5 C 18,5 C 6,4 km/h (2 Bft)
08.04.2020 15:52 18,2 C 23,7 C 10,3 C 14 % 1024,6 hPa 0,0 l/m 5,8 km/h (2 Bft) O-NO 67 -9,7 C 18,2 C 5,8 km/h (2 Bft)
08.04.2020 15:50 18,2 C 24,6 C 10,3 C 14 % 1024,6 hPa 0,0 l/m 5,3 km/h (1 Bft) O-NO 67 -9,7 C 18,2 C 11,8 km/h (2 Bft)
08.04.2020 15:48 18,7 C 25,2 C 10,2 C 14 % 1024,6 hPa 0,0 l/m 6,9 km/h (2 Bft) S-SO 157 -9,3 C 18,5 C 5,2 km/h (1 Bft)
08.04.2020 15:46 18,7 C 25,3 C 10,2 C 14 % 1024,9 hPa 0,0 l/m 7,9 km/h (2 Bft) NO 45 -9,3 C 18,0 C 6,6 km/h (2 Bft)
08.04.2020 15:44 18,4 C 25,1 C 10,2 C 14 % 1024,9 hPa 0,0 l/m 7,7 km/h (2 Bft) O-NO 67 -9,6 C 17,8 C 10,2 km/h (2 Bft)
08.04.2020 15:42 18,6 C 25,0 C 10,2 C 14 % 1024,9 hPa 0,0 l/m 7,6 km/h (2 Bft) O-SO 112 -9,4 C 18,1 C 8,5 km/h (2 Bft)
08.04.2020 15:40 18,6 C 25,0 C 10,2 C 14 % 1024,9 hPa 0,0 l/m 7,6 km/h (2 Bft) O 90 -9,4 C 18,1 C 7,7 km/h (2 Bft)
08.04.2020 15:38 18,3 C 25,4 C 10,2 C 14 % 1024,9 hPa 0,0 l/m 6,6 km/h (2 Bft) O-NO 67 -9,6 C 18,2 C 23,6 km/h (4 Bft)
08.04.2020 15:36 18,7 C 25,0 C 10,2 C 14 % 1024,9 hPa 0,0 l/m 5,6 km/h (1 Bft) NO 45 -9,3 C 18,7 C 7,0 km/h (2 Bft)
08.04.2020 15:34 18,9 C 26,3 C 10,2 C 14 % 1024,9 hPa 0,0 l/m 5,8 km/h (2 Bft) W-SW 247 -9,2 C 18,9 C 6,0 km/h (2 Bft)
08.04.2020 15:32 19,1 C 26,6 C 10,2 C 14 % 1024,9 hPa 0,0 l/m 6,9 km/h (2 Bft) SO 135 -9,0 C 18,9 C 8,1 km/h (2 Bft)
08.04.2020 15:30 19,1 C 25,7 C 10,2 C 14 % 1024,9 hPa 0,0 l/m 7,2 km/h (2 Bft) S-SW 202 -9,0 C 18,7 C 8,3 km/h (2 Bft)
08.04.2020 15:28 18,7 C 25,9 C 10,2 C 14 % 1024,9 hPa 0,0 l/m 7,2 km/h (2 Bft) NO 45 -9,3 C 18,3 C 9,1 km/h (2 Bft)
08.04.2020 15:26 18,5 C 24,9 C 10,2 C 14 % 1024,6 hPa 0,0 l/m 7,1 km/h (2 Bft) S-SW 202 -9,5 C 18,2 C 11,6 km/h (2 Bft)
08.04.2020 15:24 18,4 C 24,8 C 10,2 C 14 % 1024,6 hPa 0,0 l/m 7,2 km/h (2 Bft) O-NO 67 -9,6 C 18,0 C 12,4 km/h (3 Bft)
08.04.2020 15:22 18,0 C 24,2 C 10,2 C 14 % 1024,6 hPa 0,0 l/m 6,4 km/h (2 Bft) O 90 -9,9 C 18,0 C 13,9 km/h (3 Bft)
08.04.2020 15:20 18,3 C 25,0 C 10,2 C 14 % 1024,6 hPa 0,0 l/m 6,3 km/h (2 Bft) O-SO 112 -9,6 C 18,3 C 10,8 km/h (2 Bft)
08.04.2020 15:18 18,4 C 24,6 C 10,2 C 14 % 1024,6 hPa 0,0 l/m 6,1 km/h (2 Bft) NW 315 -9,6 C 18,4 C 9,3 km/h (2 Bft)
08.04.2020 15:16 18,2 C 24,2 C 10,2 C 14 % 1024,6 hPa 0,0 l/m 6,6 km/h (2 Bft) S-SW 202 -9,7 C 18,1 C 5,8 km/h (2 Bft)
08.04.2020 15:14 18,0 C 23,6 C 10,2 C 14 % 1024,6 hPa 0,0 l/m 6,0 km/h (2 Bft) S-SO 157 -9,9 C 18,0 C 8,3 km/h (2 Bft)
08.04.2020 15:12 18,0 C 24,6 C 10,2 C 14 % 1024,6 hPa 0,0 l/m 6,0 km/h (2 Bft) W-NW 292 -9,9 C 18,0 C 2,9 km/h (1 Bft)
08.04.2020 15:10 17,8 C 25,1 C 10,2 C 15 % 1024,6 hPa 0,0 l/m 6,3 km/h (2 Bft) O-NO 67 -9,2 C 17,8 C 18,0 km/h (3 Bft)
08.04.2020 15:08 17,9 C 25,7 C 10,2 C 15 % 1024,6 hPa 0,0 l/m 5,3 km/h (1 Bft) O-NO 67 -9,1 C 17,9 C 4,2 km/h (1 Bft)
08.04.2020 15:06 17,9 C 25,2 C 10,2 C 15 % 1025,3 hPa 0,0 l/m 5,3 km/h (1 Bft) W 270 -9,1 C 17,9 C 11,4 km/h (2 Bft)
08.04.2020 15:04 17,9 C 25,2 C 10,2 C 15 % 1025,3 hPa 0,0 l/m 5,1 km/h (1 Bft) NW 315 -9,1 C 17,9 C 11,2 km/h (2 Bft)
08.04.2020 15:02 17,9 C 24,5 C 10,2 C 15 % 1025,3 hPa 0,0 l/m 4,5 km/h (1 Bft) SW 225 -9,1 C 17,9 C 7,9 km/h (2 Bft)
08.04.2020 15:00 17,9 C 24,7 C 10,2 C 15 % 1025,3 hPa 0,0 l/m 4,2 km/h (1 Bft) NO 45 -9,1 C 17,9 C 15,1 km/h (3 Bft)
08.04.2020 14:58 18,2 C 25,4 C 10,2 C 14 % 1025,3 hPa 0,0 l/m 3,5 km/h (1 Bft) S-SW 202 -9,7 C 18,2 C 3,7 km/h (1 Bft)
08.04.2020 14:56 18,3 C 25,1 C 10,3 C 14 % 1025,3 hPa 0,0 l/m 3,9 km/h (1 Bft) NO 45 -9,6 C 18,3 C 3,5 km/h (1 Bft)
08.04.2020 14:54 18,1 C 26,0 C 10,3 C 14 % 1025,3 hPa 0,0 l/m 3,9 km/h (1 Bft) S-SO 157 -9,8 C 18,1 C 6,4 km/h (2 Bft)
08.04.2020 14:52 18,2 C 26,5 C 10,3 C 14 % 1025,3 hPa 0,0 l/m 5,1 km/h (1 Bft) N-NO 22 -9,7 C 18,2 C 3,3 km/h (1 Bft)
08.04.2020 14:50 18,0 C 25,8 C 10,3 C 14 % 1025,3 hPa 0,0 l/m 6,3 km/h (2 Bft) O-NO 67 -9,9 C 18,0 C 13,3 km/h (3 Bft)
08.04.2020 14:48 18,1 C 25,6 C 10,3 C 14 % 1025,3 hPa 0,0 l/m 6,8 km/h (2 Bft) S 180 -9,8 C 17,9 C 7,7 km/h (2 Bft)
08.04.2020 14:46 18,0 C 24,7 C 10,3 C 14 % 1025,6 hPa 0,0 l/m 7,4 km/h (2 Bft) W-SW 247 -9,9 C 17,5 C 2,9 km/h (1 Bft)
08.04.2020 14:44 18,0 C 26,4 C 10,3 C 14 % 1025,6 hPa 0,0 l/m 8,2 km/h (2 Bft) O-NO 67 -9,9 C 17,2 C 11,8 km/h (2 Bft)
08.04.2020 14:42 18,2 C 25,1 C 10,3 C 14 % 1025,6 hPa 0,0 l/m 8,0 km/h (2 Bft) O 90 -9,7 C 17,5 C 19,9 km/h (4 Bft)
08.04.2020 14:40 17,9 C 24,0 C 10,3 C 15 % 1025,6 hPa 0,0 l/m 7,1 km/h (2 Bft) SW 225 -9,1 C 17,6 C 10,0 km/h (2 Bft)
08.04.2020 14:38 17,7 C 23,8 C 10,3 C 15 % 1025,6 hPa 0,0 l/m 6,4 km/h (2 Bft) W 270 -9,2 C 17,7 C 11,0 km/h (2 Bft)
08.04.2020 14:36 17,9 C 24,0 C 10,3 C 15 % 1025,6 hPa 0,0 l/m 6,3 km/h (2 Bft) SW 225 -9,1 C 17,9 C 7,5 km/h (2 Bft)
08.04.2020 14:34 17,9 C 24,2 C 10,3 C 15 % 1025,6 hPa 0,0 l/m 6,4 km/h (2 Bft) SO 135 -9,1 C 17,9 C 17,4 km/h (3 Bft)
08.04.2020 14:32 17,7 C 24,1 C 10,3 C 15 % 1025,6 hPa 0,0 l/m 6,1 km/h (2 Bft) SW 225 -9,2 C 17,7 C 14,7 km/h (3 Bft)
08.04.2020 14:30 17,5 C 23,7 C 10,3 C 15 % 1025,6 hPa 0,0 l/m 6,1 km/h (2 Bft) S-SW 202 -9,4 C 17,5 C 14,7 km/h (3 Bft)
08.04.2020 14:28 17,4 C 24,0 C 10,3 C 15 % 1025,6 hPa 0,0 l/m 6,1 km/h (2 Bft) W-SW 247 -9,5 C 17,4 C 7,1 km/h (2 Bft)
08.04.2020 14:26 17,3 C 23,6 C 10,3 C 15 % 1025,8 hPa 0,0 l/m 7,2 km/h (2 Bft) N 360 -9,6 C 16,9 C 7,1 km/h (2 Bft)
08.04.2020 14:24 17,3 C 23,9 C 10,3 C 15 % 1025,8 hPa 0,0 l/m 7,6 km/h (2 Bft) N-NO 22 -9,6 C 16,7 C 5,8 km/h (2 Bft)
08.04.2020 14:22 17,4 C 24,1 C 10,3 C 15 % 1025,8 hPa 0,0 l/m 8,2 km/h (2 Bft) O-SO 112 -9,5 C 16,5 C 18,0 km/h (3 Bft)
08.04.2020 14:20 17,3 C 24,7 C 10,3 C 15 % 1025,8 hPa 0,0 l/m 8,9 km/h (2 Bft) W 270 -9,6 C 16,1 C 8,5 km/h (2 Bft)
08.04.2020 14:18 17,4 C 24,7 C 10,3 C 15 % 1025,8 hPa 0,0 l/m 9,7 km/h (2 Bft) S-SO 157 -9,5 C 15,9 C 13,3 km/h (3 Bft)
08.04.2020 14:16 17,4 C 23,7 C 10,4 C 15 % 1025,8 hPa 0,0 l/m 9,7 km/h (2 Bft) O 90 -9,5 C 15,9 C 14,5 km/h (3 Bft)
08.04.2020 14:14 17,2 C 24,0 C 10,4 C 15 % 1025,8 hPa 0,0 l/m 8,9 km/h (2 Bft) O-NO 67 -9,6 C 16,0 C 11,0 km/h (2 Bft)
08.04.2020 14:12 17,2 C 24,7 C 10,4 C 15 % 1025,8 hPa 0,0 l/m 8,4 km/h (2 Bft) O-NO 67 -9,6 C 16,2 C 11,2 km/h (2 Bft)
08.04.2020 14:10 17,3 C 24,1 C 10,4 C 15 % 1025,8 hPa 0,0 l/m 7,6 km/h (2 Bft) NO 45 -9,6 C 16,7 C 13,3 km/h (3 Bft)
08.04.2020 14:08 17,3 C 23,6 C 10,4 C 15 % 1025,8 hPa 0,0 l/m 6,8 km/h (2 Bft) O 90 -9,6 C 17,1 C 14,1 km/h (3 Bft)
08.04.2020 14:06 17,3 C 24,2 C 10,4 C 15 % 1025,9 hPa 0,0 l/m 6,3 km/h (2 Bft) O-NO 67 -9,6 C 17,3 C 20,5 km/h (4 Bft)
08.04.2020 14:04 17,4 C 24,7 C 10,4 C 15 % 1025,9 hPa 0,0 l/m 5,0 km/h (1 Bft) NO 45 -9,5 C 17,4 C 5,4 km/h (1 Bft)
08.04.2020 14:02 17,5 C 24,4 C 10,4 C 15 % 1025,9 hPa 0,0 l/m 5,0 km/h (1 Bft) S-SO 157 -9,4 C 17,5 C 14,3 km/h (3 Bft)
08.04.2020 14:00 17,5 C 24,6 C 10,4 C 15 % 1025,9 hPa 0,0 l/m 5,0 km/h (1 Bft) O-NO 67 -9,4 C 17,5 C 12,7 km/h (3 Bft)
08.04.2020 13:58 17,4 C 25,0 C 10,4 C 15 % 1025,9 hPa 0,0 l/m 5,1 km/h (1 Bft) W 270 -9,5 C 17,4 C 6,2 km/h (2 Bft)
08.04.2020 13:56 17,4 C 24,3 C 10,4 C 15 % 1025,9 hPa 0,0 l/m 5,3 km/h (1 Bft) N-NO 22 -9,5 C 17,4 C 8,9 km/h (2 Bft)
08.04.2020 13:54 17,4 C 24,3 C 10,4 C 15 % 1025,9 hPa 0,0 l/m 5,8 km/h (2 Bft) S-SO 157 -9,5 C 17,4 C 5,8 km/h (2 Bft)
08.04.2020 13:52 17,3 C 23,3 C 10,4 C 15 % 1025,9 hPa 0,0 l/m 5,5 km/h (1 Bft) SO 135 -9,6 C 17,3 C 13,1 km/h (3 Bft)
08.04.2020 13:50 17,3 C 23,5 C 10,4 C 15 % 1025,9 hPa 0,0 l/m 6,1 km/h (2 Bft) O-NO 67 -9,6 C 17,3 C 13,3 km/h (3 Bft)
08.04.2020 13:48 17,2 C 24,2 C 10,4 C 15 % 1025,9 hPa 0,0 l/m 6,1 km/h (2 Bft) O-NO 67 -9,6 C 17,2 C 4,2 km/h (1 Bft)
08.04.2020 13:46 17,5 C 23,9 C 10,4 C 15 % 1026,0 hPa 0,0 l/m 6,6 km/h (2 Bft) SW 225 -9,4 C 17,4 C 8,3 km/h (2 Bft)
08.04.2020 13:44 17,4 C 24,6 C 10,3 C 15 % 1026,0 hPa 0,0 l/m 6,0 km/h (2 Bft) W 270 -9,5 C 17,4 C 6,6 km/h (2 Bft)
08.04.2020 13:42 17,4 C 23,0 C 10,3 C 15 % 1026,0 hPa 0,0 l/m 6,3 km/h (2 Bft) W 270 -9,5 C 17,4 C 5,4 km/h (1 Bft)
08.04.2020 13:40 17,3 C 23,6 C 10,3 C 15 % 1026,0 hPa 0,0 l/m 6,3 km/h (2 Bft) S-SW 202 -9,6 C 17,3 C 14,5 km/h (3 Bft)
08.04.2020 13:38 17,3 C 24,0 C 10,3 C 15 % 1026,0 hPa 0,0 l/m 5,3 km/h (1 Bft) W-NW 292 -9,6 C 17,3 C 9,1 km/h (2 Bft)
08.04.2020 13:36 17,6 C 25,2 C 10,3 C 15 % 1026,0 hPa 0,0 l/m 5,8 km/h (2 Bft) S 180 -9,3 C 17,6 C 8,7 km/h (2 Bft)
08.04.2020 13:34 17,5 C 25,4 C 10,3 C 15 % 1026,0 hPa 0,0 l/m 5,8 km/h (2 Bft) O-NO 67 -9,4 C 17,5 C 8,1 km/h (2 Bft)
08.04.2020 13:32 17,4 C 25,3 C 10,3 C 15 % 1026,0 hPa 0,0 l/m 6,4 km/h (2 Bft) O-NO 67 -9,5 C 17,4 C 8,9 km/h (2 Bft)
08.04.2020 13:30 17,4 C 24,0 C 10,3 C 15 % 1026,0 hPa 0,0 l/m 6,0 km/h (2 Bft) N-NO 22 -9,5 C 17,4 C 8,7 km/h (2 Bft)
08.04.2020 13:28 17,2 C 23,0 C 10,3 C 15 % 1026,0 hPa 0,0 l/m 6,9 km/h (2 Bft) W-NW 292 -9,6 C 17,0 C 4,1 km/h (1 Bft)
08.04.2020 13:26 17,4 C 24,2 C 10,2 C 15 % 1026,2 hPa 0,0 l/m 7,7 km/h (2 Bft) S 180 -9,5 C 16,8 C 12,0 km/h (2 Bft)
08.04.2020 13:24 17,2 C 24,6 C 10,2 C 15 % 1026,2 hPa 0,0 l/m 7,9 km/h (2 Bft) N-NO 22 -9,6 C 16,5 C 10,0 km/h (2 Bft)
08.04.2020 13:22 17,1 C 24,4 C 10,2 C 15 % 1026,2 hPa 0,0 l/m 8,0 km/h (2 Bft) S 180 -9,7 C 16,3 C 18,9 km/h (3 Bft)
08.04.2020 13:20 17,3 C 24,2 C 10,2 C 15 % 1026,2 hPa 0,0 l/m 7,6 km/h (2 Bft) N-NW 337 -9,6 C 16,7 C 5,2 km/h (1 Bft)
08.04.2020 13:18 16,9 C 22,4 C 10,2 C 15 % 1026,2 hPa 0,0 l/m 8,4 km/h (2 Bft) O-NO 67 -9,9 C 15,9 C 19,7 km/h (3 Bft)
08.04.2020 13:16 16,8 C 21,7 C 10,1 C 15 % 1026,2 hPa 0,0 l/m 7,9 km/h (2 Bft) O-NO 67 -10,0 C 16,0 C 13,7 km/h (3 Bft)
08.04.2020 13:14 16,9 C 22,2 C 10,1 C 15 % 1026,2 hPa 0,0 l/m 7,7 km/h (2 Bft) SO 135 -9,9 C 16,2 C 18,7 km/h (3 Bft)
08.04.2020 13:12 17,1 C 23,6 C 10,1 C 15 % 1026,2 hPa 0,0 l/m 7,7 km/h (2 Bft) NW 315 -9,7 C 16,5 C 7,7 km/h (2 Bft)
08.04.2020 13:10 17,0 C 23,3 C 10,1 C 15 % 1026,2 hPa 0,0 l/m 7,9 km/h (2 Bft) N-NO 22 -9,8 C 16,2 C 4,8 km/h (1 Bft)
08.04.2020 13:08 16,9 C 23,8 C 9,9 C 15 % 1026,2 hPa 0,0 l/m 8,5 km/h (2 Bft) S-SO 157 -9,9 C 15,9 C 13,1 km/h (3 Bft)
08.04.2020 13:06 16,7 C 22,0 C 9,9 C 15 % 1026,6 hPa 0,0 l/m 8,9 km/h (2 Bft) NO 45 -10,0 C 15,5 C 23,4 km/h (4 Bft)
08.04.2020 13:04 17,0 C 24,0 C 9,9 C 15 % 1026,6 hPa 0,0 l/m 8,4 km/h (2 Bft) S-SO 157 -9,8 C 16,0 C 9,8 km/h (2 Bft)
08.04.2020 13:02 16,9 C 23,4 C 9,8 C 15 % 1026,6 hPa 0,0 l/m 9,0 km/h (2 Bft) S-SW 202 -9,9 C 15,6 C 8,1 km/h (2 Bft)
08.04.2020 13:00 16,7 C 23,1 C 9,8 C 15 % 1026,6 hPa 0,0 l/m 9,0 km/h (2 Bft) W-NW 292 -10,0 C 15,4 C 9,3 km/h (2 Bft)
08.04.2020 12:58 16,7 C 23,4 C 9,7 C 15 % 1026,6 hPa 0,0 l/m 10,0 km/h (2 Bft) SO 135 -10,0 C 15,0 C 9,7 km/h (2 Bft)
08.04.2020 12:56 16,7 C 22,7 C 9,7 C 15 % 1026,6 hPa 0,0 l/m 9,7 km/h (2 Bft) O-SO 112 -10,0 C 15,1 C 21,6 km/h (4 Bft)
08.04.2020 12:54 16,6 C 22,9 C 9,7 C 15 % 1026,6 hPa 0,0 l/m 9,8 km/h (2 Bft) O-NO 67 -10,1 C 15,0 C 12,0 km/h (2 Bft)
08.04.2020 12:52 16,7 C 22,5 C 9,7 C 15 % 1026,6 hPa 0,0 l/m 11,1 km/h (2 Bft) S-SO 157 -10,0 C 14,6 C 24,7 km/h (4 Bft)
08.04.2020 12:50 16,4 C 21,1 C 9,6 C 15 % 1026,6 hPa 0,0 l/m 11,1 km/h (2 Bft) O-NO 67 -10,3 C 14,2 C 3,3 km/h (1 Bft)
08.04.2020 12:48 16,3 C 22,7 C 9,6 C 15 % 1026,6 hPa 0,0 l/m 11,6 km/h (2 Bft) NO 45 -10,4 C 13,9 C 12,9 km/h (3 Bft)
08.04.2020 12:46 16,3 C 21,4 C 9,5 C 15 % 1026,6 hPa 0,0 l/m 11,7 km/h (2 Bft) NO 45 -10,4 C 13,9 C 12,7 km/h (3 Bft)
08.04.2020 12:44 16,3 C 21,9 C 9,5 C 15 % 1026,6 hPa 0,0 l/m 11,1 km/h (2 Bft) S-SO 157 -10,4 C 14,1 C 18,9 km/h (3 Bft)
08.04.2020 12:42 16,3 C 21,7 C 9,4 C 15 % 1026,6 hPa 0,0 l/m 10,9 km/h (2 Bft) O-NO 67 -10,4 C 14,2 C 17,8 km/h (3 Bft)
08.04.2020 12:40 16,4 C 20,9 C 9,4 C 15 % 1026,6 hPa 0,0 l/m 11,1 km/h (2 Bft) SO 135 -10,3 C 14,2 C 12,6 km/h (3 Bft)
08.04.2020 12:38 16,3 C 21,3 C 9,4 C 15 % 1026,6 hPa 0,0 l/m 10,6 km/h (2 Bft) O-NO 67 -10,4 C 14,3 C 22,2 km/h (4 Bft)
08.04.2020 12:36 16,3 C 21,1 C 9,2 C 15 % 1026,6 hPa 0,0 l/m 10,0 km/h (2 Bft) N-NO 22 -10,4 C 14,6 C 8,5 km/h (2 Bft)
08.04.2020 12:34 16,5 C 22,0 C 9,2 C 15 % 1026,6 hPa 0,0 l/m 9,8 km/h (2 Bft) S-SO 157 -10,2 C 14,9 C 18,3 km/h (3 Bft)
08.04.2020 12:32 16,4 C 21,4 C 9,1 C 15 % 1026,6 hPa 0,0 l/m 9,3 km/h (2 Bft) O-SO 112 -10,3 C 15,0 C 15,3 km/h (3 Bft)
08.04.2020 12:30 16,5 C 21,7 C 9,1 C 15 % 1026,6 hPa 0,0 l/m 8,4 km/h (2 Bft) W-NW 292 -10,2 C 15,5 C 16,8 km/h (3 Bft)
08.04.2020 12:28 16,6 C 22,5 C 9,1 C 15 % 1026,6 hPa 0,0 l/m 7,6 km/h (2 Bft) S-SO 157 -10,1 C 16,0 C 7,0 km/h (2 Bft)
08.04.2020 12:26 16,9 C 22,2 C 9,0 C 15 % 1026,8 hPa 0,0 l/m 7,9 km/h (2 Bft) S 180 -9,9 C 16,1 C 14,1 km/h (3 Bft)
08.04.2020 12:24 17,0 C 22,4 C 9,0 C 15 % 1026,8 hPa 0,0 l/m 7,2 km/h (2 Bft) O-SO 112 -9,8 C 16,6 C 5,4 km/h (1 Bft)
08.04.2020 12:22 16,9 C 22,7 C 8,9 C 15 % 1026,8 hPa 0,0 l/m 7,6 km/h (2 Bft) N 360 -9,9 C 16,3 C 14,3 km/h (3 Bft)
08.04.2020 12:20 16,7 C 22,4 C 8,9 C 15 % 1026,8 hPa 0,0 l/m 7,4 km/h (2 Bft) O-SO 112 -10,0 C 16,2 C 10,8 km/h (2 Bft)
08.04.2020 12:18 16,6 C 22,9 C 8,8 C 15 % 1026,8 hPa 0,0 l/m 6,9 km/h (2 Bft) SO 135 -10,1 C 16,3 C 8,1 km/h (2 Bft)
08.04.2020 12:16 16,7 C 23,4 C 8,8 C 15 % 1026,8 hPa 0,0 l/m 6,8 km/h (2 Bft) N 360 -10,0 C 16,5 C 12,2 km/h (2 Bft)
08.04.2020 12:14 16,6 C 23,2 C 8,8 C 15 % 1026,8 hPa 0,0 l/m 6,0 km/h (2 Bft) O-SO 112 -10,1 C 16,6 C 24,5 km/h (4 Bft)
08.04.2020 12:12 16,5 C 23,5 C 8,7 C 15 % 1026,8 hPa 0,0 l/m 5,6 km/h (1 Bft) O-NO 67 -10,2 C 16,5 C 19,9 km/h (4 Bft)
08.04.2020 12:10 16,7 C 23,2 C 8,4 C 15 % 1026,8 hPa 0,0 l/m 5,6 km/h (1 Bft) O-NO 67 -10,0 C 16,7 C 19,9 km/h (4 Bft)
08.04.2020 12:08 16,7 C 23,2 C 8,4 C 15 % 1026,8 hPa 0,0 l/m 5,6 km/h (1 Bft) O-NO 67 -10,0 C 16,7 C 19,9 km/h (4 Bft)
08.04.2020 12:06 16,7 C 23,2 C 8,4 C 15 % 1026,6 hPa 0,0 l/m 5,6 km/h (1 Bft) O-NO 67 -10,0 C 16,7 C 19,9 km/h (4 Bft)
08.04.2020 12:04 16,7 C 23,2 C 8,4 C 15 % 1026,6 hPa 0,0 l/m 5,6 km/h (1 Bft) O-NO 67 -10,0 C 16,7 C 19,9 km/h (4 Bft)
08.04.2020 12:02 16,7 C 23,2 C 8,4 C 15 % 1026,6 hPa 0,0 l/m 5,6 km/h (1 Bft) O-NO 67 -10,0 C 16,7 C 19,9 km/h (4 Bft)
08.04.2020 12:00 16,7 C 23,2 C 8,4 C 15 % 1026,6 hPa 0,0 l/m 5,3 km/h (1 Bft) O-NO 67 -10,0 C 16,7 C 7,5 km/h (2 Bft)
08.04.2020 11:58 16,8 C 23,4 C 8,3 C 15 % 1026,6 hPa 0,0 l/m 5,1 km/h (1 Bft) NW 315 -10,0 C 16,8 C 8,9 km/h (2 Bft)
08.04.2020 11:56 16,8 C 23,6 C 8,3 C 15 % 1026,6 hPa 0,0 l/m 6,4 km/h (2 Bft) W 270 -10,0 C 16,8 C 5,4 km/h (1 Bft)
08.04.2020 11:54 16,4 C 23,4 C 8,3 C 15 % 1026,6 hPa 0,0 l/m 7,2 km/h (2 Bft) W-SW 247 -10,3 C 16,0 C 2,1 km/h (1 Bft)
08.04.2020 11:52 16,3 C 23,3 C 8,3 C 15 % 1026,6 hPa 0,0 l/m 8,4 km/h (2 Bft) O 90 -10,4 C 15,3 C 26,5 km/h (4 Bft)
08.04.2020 11:50 16,4 C 23,3 C 8,1 C 15 % 1026,6 hPa 0,0 l/m 8,4 km/h (2 Bft) NO 45 -10,3 C 15,4 C 11,8 km/h (2 Bft)
08.04.2020 11:48 16,6 C 24,2 C 8,1 C 15 % 1026,6 hPa 0,0 l/m 9,8 km/h (2 Bft) O-NO 67 -10,1 C 15,0 C 2,9 km/h (1 Bft)
08.04.2020 11:46 16,4 C 22,4 C 8,1 C 15 % 1027,2 hPa 0,0 l/m 10,5 km/h (2 Bft) SO 135 -10,3 C 14,5 C 25,3 km/h (4 Bft)
08.04.2020 11:44 16,0 C 21,5 C 8,0 C 15 % 1027,2 hPa 0,0 l/m 10,3 km/h (2 Bft) SO 135 -10,6 C 14,1 C 20,1 km/h (4 Bft)
08.04.2020 11:42 15,9 C 20,6 C 8,0 C 14 % 1027,2 hPa 0,0 l/m 10,1 km/h (2 Bft) S-SO 157 -11,5 C 14,1 C 25,3 km/h (4 Bft)
08.04.2020 11:40 16,0 C 22,1 C 7,9 C 15 % 1027,2 hPa 0,0 l/m 10,9 km/h (2 Bft) SO 135 -10,6 C 13,8 C 11,2 km/h (2 Bft)
08.04.2020 11:38 15,8 C 21,8 C 7,9 C 14 % 1027,2 hPa 0,0 l/m 10,1 km/h (2 Bft) O-NO 67 -11,6 C 14,0 C 12,2 km/h (2 Bft)
08.04.2020 11:36 16,0 C 22,2 C 7,9 C 15 % 1027,2 hPa 0,0 l/m 9,7 km/h (2 Bft) S-SW 202 -10,6 C 14,4 C 12,4 km/h (3 Bft)
08.04.2020 11:34 15,9 C 21,5 C 7,8 C 14 % 1027,2 hPa 0,0 l/m 9,5 km/h (2 Bft) O-NO 67 -11,5 C 14,3 C 9,7 km/h (2 Bft)
08.04.2020 11:32 16,0 C 20,7 C 7,8 C 15 % 1027,2 hPa 0,0 l/m 9,3 km/h (2 Bft) O-SO 112 -10,6 C 14,5 C 19,7 km/h (3 Bft)
08.04.2020 11:30 16,1 C 21,9 C 7,7 C 15 % 1027,2 hPa 0,0 l/m 8,5 km/h (2 Bft) SO 135 -10,5 C 15,0 C 23,2 km/h (4 Bft)
08.04.2020 11:28 16,2 C 22,0 C 7,7 C 15 % 1027,2 hPa 0,0 l/m 8,2 km/h (2 Bft) O-SO 112 -10,4 C 15,3 C 29,0 km/h (5 Bft)
08.04.2020 11:26 15,9 C 22,8 C 7,6 C 14 % 1026,9 hPa 0,0 l/m 9,8 km/h (2 Bft) W-NW 292 -11,5 C 14,2 C 10,2 km/h (2 Bft)
08.04.2020 11:24 15,9 C 22,0 C 7,6 C 14 % 1026,9 hPa 0,0 l/m 10,6 km/h (2 Bft) S-SW 202 -11,5 C 13,9 C 12,9 km/h (3 Bft)
08.04.2020 11:22 15,4 C 21,0 C 7,6 C 14 % 1026,9 hPa 0,0 l/m 10,1 km/h (2 Bft) N 360 -11,9 C 13,5 C 5,4 km/h (1 Bft)
08.04.2020 11:20 15,6 C 21,7 C 7,5 C 14 % 1026,9 hPa 0,0 l/m 10,0 km/h (2 Bft) N-NW 337 -11,8 C 13,8 C 7,7 km/h (2 Bft)
08.04.2020 11:18 15,7 C 20,5 C 7,5 C 14 % 1026,9 hPa 0,0 l/m 8,9 km/h (2 Bft) SO 135 -11,7 C 14,4 C 28,4 km/h (4 Bft)
08.04.2020 11:16 15,6 C 20,6 C 7,5 C 14 % 1026,9 hPa 0,0 l/m 6,8 km/h (2 Bft) N-NO 22 -11,8 C 15,4 C 28,4 km/h (4 Bft)
08.04.2020 11:14 15,9 C 20,6 C 7,4 C 14 % 1026,9 hPa 0,0 l/m 6,3 km/h (2 Bft) O-NO 67 -11,5 C 15,9 C 10,8 km/h (2 Bft)
08.04.2020 11:12 16,1 C 21,3 C 7,4 C 15 % 1026,9 hPa 0,0 l/m 5,8 km/h (2 Bft) S-SO 157 -10,5 C 16,1 C 11,6 km/h (2 Bft)
08.04.2020 11:10 15,9 C 21,8 C 7,4 C 14 % 1026,9 hPa 0,0 l/m 5,1 km/h (1 Bft) S-SO 157 -11,5 C 15,9 C 10,8 km/h (2 Bft)
08.04.2020 11:08 15,9 C 22,0 C 7,3 C 14 % 1026,9 hPa 0,0 l/m 6,4 km/h (2 Bft) S-SO 157 -11,5 C 15,9 C 4,2 km/h (1 Bft)
08.04.2020 11:06 16,0 C 21,8 C 7,3 C 15 % 1027,6 hPa 0,0 l/m 8,2 km/h (2 Bft) NW 315 -10,6 C 15,1 C 3,9 km/h (1 Bft)
08.04.2020 11:04 16,0 C 21,5 C 7,1 C 15 % 1027,6 hPa 0,0 l/m 9,2 km/h (2 Bft) NO 45 -10,6 C 14,6 C 8,1 km/h (2 Bft)
08.04.2020 11:02 16,1 C 21,2 C 7,1 C 15 % 1027,6 hPa 0,0 l/m 9,0 km/h (2 Bft) O-SO 112 -10,5 C 14,8 C 4,6 km/h (1 Bft)
08.04.2020 11:00 15,9 C 20,7 C 7,1 C 14 % 1027,6 hPa 0,0 l/m 10,0 km/h (2 Bft) W-NW 292 -11,5 C 14,1 C 5,6 km/h (1 Bft)
08.04.2020 10:58 15,6 C 19,2 C 7,0 C 14 % 1027,6 hPa 0,0 l/m 9,0 km/h (2 Bft) S 180 -11,8 C 14,2 C 17,6 km/h (3 Bft)
08.04.2020 10:56 15,7 C 19,3 C 7,0 C 14 % 1027,6 hPa 0,0 l/m 9,0 km/h (2 Bft) SO 135 -11,7 C 14,3 C 23,0 km/h (4 Bft)
08.04.2020 10:54 15,5 C 19,7 C 7,0 C 14 % 1027,6 hPa 0,0 l/m 7,1 km/h (2 Bft) S-SO 157 -11,8 C 15,1 C 14,5 km/h (3 Bft)
08.04.2020 10:52 15,8 C 20,4 C 6,9 C 14 % 1027,6 hPa 0,0 l/m 6,9 km/h (2 Bft) N 360 -11,6 C 15,5 C 4,2 km/h (1 Bft)
08.04.2020 10:50 15,8 C 20,1 C 6,9 C 14 % 1027,6 hPa 0,0 l/m 7,2 km/h (2 Bft) S-SO 157 -11,6 C 15,4 C 25,5 km/h (4 Bft)
08.04.2020 10:48 15,6 C 20,0 C 6,9 C 14 % 1027,6 hPa 0,0 l/m 6,1 km/h (2 Bft) S-SO 157 -11,8 C 15,6 C 3,5 km/h (1 Bft)
08.04.2020 10:46 15,9 C 19,9 C 6,8 C 14 % 1027,6 hPa 0,0 l/m 6,4 km/h (2 Bft) S 180 -11,5 C 15,9 C 12,9 km/h (3 Bft)
08.04.2020 10:44 15,8 C 20,0 C 6,8 C 14 % 1027,6 hPa 0,0 l/m 6,6 km/h (2 Bft) N-NO 22 -11,6 C 15,7 C 8,5 km/h (2 Bft)
08.04.2020 10:42 15,9 C 20,4 C 6,8 C 14 % 1027,6 hPa 0,0 l/m 7,1 km/h (2 Bft) W 270 -11,5 C 15,5 C 18,3 km/h (3 Bft)
08.04.2020 10:40 16,0 C 20,3 C 6,7 C 20 % 1027,6 hPa 0,0 l/m 7,2 km/h (2 Bft) N-NO 22 -6,9 C 15,6 C 11,2 km/h (2 Bft)
08.04.2020 10:38 16,0 C 20,0 C 6,7 C 20 % 1027,6 hPa 0,0 l/m 7,2 km/h (2 Bft) O-NO 67 -6,9 C 15,6 C 6,0 km/h (2 Bft)
08.04.2020 10:36 16,2 C 20,8 C 6,7 C 20 % 1027,6 hPa 0,0 l/m 7,2 km/h (2 Bft) O-SO 112 -6,8 C 15,8 C 17,0 km/h (3 Bft)
08.04.2020 10:34 16,1 C 20,4 C 6,7 C 20 % 1027,6 hPa 0,0 l/m 6,0 km/h (2 Bft) SO 135 -6,8 C 16,1 C 14,9 km/h (3 Bft)
08.04.2020 10:32 16,1 C 20,9 C 6,6 C 20 % 1027,6 hPa 0,0 l/m 5,8 km/h (2 Bft) O-SO 112 -6,8 C 16,1 C 9,7 km/h (2 Bft)
08.04.2020 10:30 16,1 C 20,3 C 6,6 C 20 % 1027,6 hPa 0,0 l/m 5,5 km/h (1 Bft) SO 135 -6,8 C 16,1 C 6,4 km/h (2 Bft)
08.04.2020 10:28 16,2 C 20,4 C 6,6 C 20 % 1027,6 hPa 0,0 l/m 5,6 km/h (1 Bft) O-SO 112 -6,8 C 16,2 C 10,6 km/h (2 Bft)
08.04.2020 10:26 16,0 C 20,0 C 6,5 C 20 % 1027,7 hPa 0,0 l/m 5,6 km/h (1 Bft) O-NO 67 -6,9 C 16,0 C 10,8 km/h (2 Bft)
08.04.2020 10:24 16,1 C 19,7 C 6,5 C 20 % 1027,7 hPa 0,0 l/m 6,3 km/h (2 Bft) S-SO 157 -6,8 C 16,1 C 3,5 km/h (1 Bft)
08.04.2020 10:22 16,0 C 20,4 C 6,5 C 20 % 1027,7 hPa 0,0 l/m 6,6 km/h (2 Bft) S-SW 202 -6,9 C 15,9 C 6,4 km/h (2 Bft)
08.04.2020 10:20 15,9 C 19,7 C 6,5 C 20 % 1027,7 hPa 0,0 l/m 6,9 km/h (2 Bft) SO 135 -7,0 C 15,6 C 5,8 km/h (2 Bft)
08.04.2020 10:18 15,8 C 19,9 C 6,4 C 20 % 1027,7 hPa 0,0 l/m 6,6 km/h (2 Bft) N-NW 337 -7,1 C 15,7 C 3,9 km/h (1 Bft)
08.04.2020 10:16 15,5 C 19,7 C 6,4 C 20 % 1027,7 hPa 0,0 l/m 6,1 km/h (2 Bft) S-SO 157 -7,3 C 15,5 C 10,4 km/h (2 Bft)
08.04.2020 10:14 15,6 C 19,4 C 6,4 C 20 % 1027,7 hPa 0,0 l/m 6,0 km/h (2 Bft) S-SW 202 -7,3 C 15,6 C 6,2 km/h (2 Bft)
08.04.2020 10:12 15,5 C 19,1 C 6,4 C 24 % 1027,7 hPa 0,0 l/m 5,5 km/h (1 Bft) S-SW 202 -5,0 C 15,5 C 14,3 km/h (3 Bft)
08.04.2020 10:10 15,4 C 19,5 C 6,3 C 24 % 1027,7 hPa 0,0 l/m 5,1 km/h (1 Bft) SW 225 -5,0 C 15,4 C 6,4 km/h (2 Bft)
08.04.2020 10:08 15,6 C 19,1 C 6,3 C 24 % 1027,7 hPa 0,0 l/m 5,5 km/h (1 Bft) S 180 -4,9 C 15,6 C 6,4 km/h (2 Bft)
08.04.2020 10:06 15,7 C 19,8 C 6,3 C 24 % 1027,8 hPa 0,0 l/m 7,4 km/h (2 Bft) O-NO 67 -4,8 C 15,2 C 7,7 km/h (2 Bft)
08.04.2020 10:04 15,6 C 20,0 C 6,3 C 24 % 1027,8 hPa 0,0 l/m 7,2 km/h (2 Bft) S-SW 202 -4,9 C 15,2 C 12,7 km/h (3 Bft)
08.04.2020 10:02 15,3 C 19,4 C 6,3 C 24 % 1027,8 hPa 0,0 l/m 8,0 km/h (2 Bft) W 270 -5,1 C 14,4 C 2,7 km/h (1 Bft)
08.04.2020 10:00 15,3 C 18,4 C 6,2 C 24 % 1027,8 hPa 0,0 l/m 8,7 km/h (2 Bft) S-SO 157 -5,1 C 14,1 C 7,7 km/h (2 Bft)
08.04.2020 09:58 15,0 C 18,3 C 6,2 C 24 % 1027,8 hPa 0,0 l/m 8,7 km/h (2 Bft) S-SO 157 -5,4 C 13,7 C 12,4 km/h (3 Bft)
08.04.2020 09:56 14,7 C 18,0 C 6,2 C 24 % 1027,8 hPa 0,0 l/m 7,7 km/h (2 Bft) S-SW 202 -5,6 C 14,0 C 14,5 km/h (3 Bft)
08.04.2020 09:54 14,7 C 18,2 C 6,2 C 24 % 1027,8 hPa 0,0 l/m 7,9 km/h (2 Bft) S 180 -5,6 C 13,8 C 8,9 km/h (2 Bft)
08.04.2020 09:52 14,6 C 17,8 C 6,2 C 26 % 1027,8 hPa 0,0 l/m 8,0 km/h (2 Bft) S-SW 202 -4,7 C 13,7 C 11,6 km/h (2 Bft)
08.04.2020 09:50 14,5 C 18,0 C 6,1 C 26 % 1027,8 hPa 0,0 l/m 8,9 km/h (2 Bft) S 180 -4,8 C 13,1 C 11,4 km/h (2 Bft)
08.04.2020 09:48 14,6 C 19,6 C 6,1 C 26 % 1027,8 hPa 0,0 l/m 9,8 km/h (2 Bft) S-SO 157 -4,7 C 12,8 C 27,4 km/h (4 Bft)
08.04.2020 09:46 14,4 C 18,9 C 6,1 C 26 % 1028,3 hPa 0,0 l/m 10,1 km/h (2 Bft) SW 225 -4,8 C 12,4 C 7,3 km/h (2 Bft)
08.04.2020 09:44 14,1 C 17,6 C 6,1 C 26 % 1028,3 hPa 0,0 l/m 11,4 km/h (2 Bft) S-SW 202 -5,1 C 11,5 C 17,6 km/h (3 Bft)
08.04.2020 09:42 13,9 C 17,5 C 6,1 C 26 % 1028,3 hPa 0,0 l/m 10,5 km/h (2 Bft) S-SO 157 -5,3 C 11,7 C 3,9 km/h (1 Bft)
08.04.2020 09:40 13,9 C 16,1 C 6,0 C 26 % 1028,3 hPa 0,0 l/m 9,5 km/h (2 Bft) S 180 -5,3 C 12,1 C 25,9 km/h (4 Bft)
08.04.2020 09:38 13,8 C 16,5 C 6,0 C 26 % 1028,3 hPa 0,0 l/m 8,5 km/h (2 Bft) S 180 -5,4 C 12,6 C 20,7 km/h (4 Bft)
08.04.2020 09:36 13,6 C 16,5 C 6,0 C 27 % 1028,3 hPa 0,0 l/m 8,5 km/h (2 Bft) S-SO 157 -5,0 C 12,4 C 16,4 km/h (3 Bft)
08.04.2020 09:34 13,6 C 16,0 C 6,0 C 27 % 1028,3 hPa 0,0 l/m 6,8 km/h (2 Bft) NW 315 -5,0 C 13,4 C 14,3 km/h (3 Bft)
08.04.2020 09:32 13,7 C 16,9 C 6,0 C 27 % 1028,3 hPa 0,0 l/m 6,3 km/h (2 Bft) O-NO 67 -4,9 C 13,7 C 9,3 km/h (2 Bft)
08.04.2020 09:30 13,9 C 17,2 C 6,0 C 30 % 1028,3 hPa 0,0 l/m 5,5 km/h (1 Bft) O-NO 67 -3,4 C 13,9 C 13,3 km/h (3 Bft)
08.04.2020 09:28 13,9 C 17,6 C 6,0 C 31 % 1028,3 hPa 0,0 l/m 4,3 km/h (1 Bft) S-SO 157 -2,9 C 13,9 C 6,2 km/h (2 Bft)
08.04.2020 09:26 13,5 C 17,1 C 6,0 C 31 % 1027,9 hPa 0,0 l/m 3,1 km/h (1 Bft) S 180 -3,3 C 13,5 C 12,4 km/h (3 Bft)
08.04.2020 09:24 13,6 C 16,7 C 6,0 C 32 % 1027,9 hPa 0,0 l/m 1,9 km/h (1 Bft) O 90 -2,8 C 13,6 C 9,7 km/h (2 Bft)
08.04.2020 09:22 13,8 C 17,4 C 6,0 C 33 % 1027,9 hPa 0,0 l/m 1,4 km/h (1 Bft) O-SO 112 -2,2 C 13,8 C 5,6 km/h (1 Bft)
08.04.2020 09:20 13,5 C 17,6 C 5,9 C 34 % 1027,9 hPa 0,0 l/m 1,4 km/h (1 Bft) N 360 -2,0 C 13,5 C 0,0 km/h (0 Bft)
08.04.2020 09:18 13,8 C 17,7 C 5,9 C 34 % 1027,9 hPa 0,0 l/m 2,9 km/h (1 Bft) N-NO 22 -1,8 C 13,8 C 3,7 km/h (1 Bft)
08.04.2020 09:16 13,7 C 17,4 C 5,9 C 34 % 1027,9 hPa 0,0 l/m 4,2 km/h (1 Bft) NO 45 -1,9 C 13,7 C 0,0 km/h (0 Bft)
08.04.2020 09:14 13,3 C 17,3 C 5,9 C 34 % 1027,9 hPa 0,0 l/m 5,3 km/h (1 Bft) N-NO 22 -2,2 C 13,3 C 4,4 km/h (1 Bft)
08.04.2020 09:12 13,2 C 17,2 C 5,9 C 34 % 1027,9 hPa 0,0 l/m 6,3 km/h (2 Bft) N-NO 22 -2,3 C 13,2 C 4,1 km/h (1 Bft)
08.04.2020 09:10 13,0 C 16,7 C 6,0 C 34 % 1027,9 hPa 0,0 l/m 7,7 km/h (2 Bft) NW 315 -2,5 C 12,2 C 5,4 km/h (1 Bft)
08.04.2020 09:08 12,7 C 16,4 C 6,0 C 35 % 1027,9 hPa 0,0 l/m 7,6 km/h (2 Bft) W-NW 292 -2,4 C 11,9 C 12,9 km/h (3 Bft)
08.04.2020 09:06 12,2 C 15,2 C 6,0 C 36 % 1027,9 hPa 0,0 l/m 6,8 km/h (2 Bft) NO 45 -2,4 C 11,9 C 5,2 km/h (1 Bft)
08.04.2020 09:04 12,1 C 15,2 C 6,0 C 36 % 1027,9 hPa 0,0 l/m 6,1 km/h (2 Bft) NW 315 -2,5 C 12,1 C 11,6 km/h (2 Bft)
08.04.2020 09:02 12,1 C 15,1 C 6,0 C 36 % 1027,9 hPa 0,0 l/m 5,3 km/h (1 Bft) W 270 -2,5 C 12,1 C 8,3 km/h (2 Bft)
08.04.2020 09:00 12,2 C 15,0 C 5,9 C 36 % 1027,9 hPa 0,0 l/m 4,3 km/h (1 Bft) NW 315 -2,4 C 12,2 C 16,8 km/h (3 Bft)
08.04.2020 08:58 11,7 C 13,8 C 5,9 C 38 % 1027,9 hPa 0,0 l/m 3,7 km/h (1 Bft) N 360 -2,1 C 11,7 C 3,5 km/h (1 Bft)
08.04.2020 08:56 11,4 C 13,4 C 5,9 C 38 % 1027,9 hPa 0,0 l/m 3,4 km/h (1 Bft) NO 45 -2,4 C 11,4 C 16,6 km/h (3 Bft)
08.04.2020 08:54 11,0 C 15,0 C 6,0 C 38 % 1027,9 hPa 0,0 l/m 2,3 km/h (1 Bft) NW 315 -2,8 C 11,0 C 0,0 km/h (0 Bft)
08.04.2020 08:52 10,9 C 14,1 C 6,0 C 39 % 1027,9 hPa 0,0 l/m 2,6 km/h (1 Bft) NW 315 -2,5 C 10,9 C 4,6 km/h (1 Bft)
08.04.2020 08:50 10,8 C 13,9 C 6,0 C 39 % 1027,9 hPa 0,0 l/m 2,7 km/h (1 Bft) W-NW 292 -2,6 C 10,8 C 2,5 km/h (1 Bft)
08.04.2020 08:48 10,9 C 14,3 C 6,0 C 39 % 1027,9 hPa 0,0 l/m 2,1 km/h (1 Bft) W-NW 292 -2,5 C 10,9 C 6,4 km/h (2 Bft)
08.04.2020 08:46 10,4 C 13,3 C 6,0 C 39 % 1027,8 hPa 0,0 l/m 2,6 km/h (1 Bft) N 360 -2,9 C 10,4 C 2,9 km/h (1 Bft)
08.04.2020 08:44 10,3 C 13,1 C 6,0 C 39 % 1027,8 hPa 0,0 l/m 2,6 km/h (1 Bft) N 360 -3,0 C 10,3 C 3,9 km/h (1 Bft)
08.04.2020 08:42 10,4 C 13,1 C 6,0 C 39 % 1027,8 hPa 0,0 l/m 2,7 km/h (1 Bft) O-NO 67 -2,9 C 10,4 C 6,6 km/h (2 Bft)
08.04.2020 08:40 9,5 C 11,9 C 6,0 C 40 % 1027,8 hPa 0,0 l/m 2,3 km/h (1 Bft) NO 45 -3,4 C 9,5 C 3,5 km/h (1 Bft)
08.04.2020 08:38 9,3 C 11,8 C 6,0 C 40 % 1027,8 hPa 0,0 l/m 3,2 km/h (1 Bft) NW 315 -3,6 C 9,3 C 0,0 km/h (0 Bft)
08.04.2020 08:36 9,2 C 11,3 C 6,0 C 41 % 1027,8 hPa 0,0 l/m 3,5 km/h (1 Bft) O 90 -3,4 C 9,2 C 7,3 km/h (2 Bft)
08.04.2020 08:34 9,5 C 11,4 C 6,1 C 40 % 1027,8 hPa 0,0 l/m 3,4 km/h (1 Bft) O-NO 67 -3,4 C 9,5 C 2,1 km/h (1 Bft)
08.04.2020 08:32 9,1 C 11,1 C 6,1 C 42 % 1027,8 hPa 0,0 l/m 3,5 km/h (1 Bft) SO 135 -3,1 C 9,1 C 5,0 km/h (1 Bft)
08.04.2020 08:30 8,7 C 10,8 C 6,1 C 43 % 1027,8 hPa 0,0 l/m 4,3 km/h (1 Bft) S-SO 157 -3,2 C 8,7 C 2,5 km/h (1 Bft)
08.04.2020 08:28 9,0 C 10,3 C 6,1 C 42 % 1027,8 hPa 0,0 l/m 4,7 km/h (1 Bft) W 270 -3,2 C 9,0 C 7,3 km/h (2 Bft)
08.04.2020 08:26 8,6 C 9,3 C 6,1 C 43 % 1027,8 hPa 0,0 l/m 4,5 km/h (1 Bft) O-SO 112 -3,3 C 8,6 C 6,8 km/h (2 Bft)
08.04.2020 08:24 6,9 C 6,4 C 6,1 C 44 % 1027,8 hPa 0,0 l/m 4,8 km/h (1 Bft) O-NO 67 -4,5 C 6,9 C 2,3 km/h (1 Bft)
08.04.2020 08:22 6,3 C 2,7 C 6,1 C 44 % 1027,8 hPa 0,0 l/m 5,5 km/h (1 Bft) O 90 -5,0 C 6,3 C 3,9 km/h (1 Bft)
08.04.2020 08:20 5,8 C 1,7 C 6,1 C 47 % 1027,8 hPa 0,0 l/m 5,6 km/h (1 Bft) W 270 -4,6 C 5,8 C 9,1 km/h (2 Bft)
08.04.2020 08:18 5,7 C 2,0 C 6,1 C 47 % 1027,8 hPa 0,0 l/m 4,7 km/h (1 Bft) N-NW 337 -4,7 C 5,7 C 8,1 km/h (2 Bft)
08.04.2020 08:16 5,4 C 2,0 C 6,1 C 47 % 1027,8 hPa 0,0 l/m 4,7 km/h (1 Bft) N 360 -5,0 C 5,4 C 11,0 km/h (2 Bft)
08.04.2020 08:14 5,3 C 2,4 C 6,1 C 47 % 1027,8 hPa 0,0 l/m 4,5 km/h (1 Bft) NW 315 -5,1 C 5,3 C 5,8 km/h (2 Bft)
08.04.2020 08:12 4,9 C 1,5 C 6,1 C 48 % 1027,8 hPa 0,0 l/m 4,5 km/h (1 Bft) SW 225 -5,2 C 4,9 C 5,2 km/h (1 Bft)
08.04.2020 08:10 6,0 C 1,3 C 6,1 C 47 % 1027,8 hPa 0,0 l/m 5,0 km/h (1 Bft) SO 135 -4,4 C 6,0 C 7,5 km/h (2 Bft)
08.04.2020 08:08 5,4 C 1,7 C 6,1 C 49 % 1027,8 hPa 0,0 l/m 5,3 km/h (1 Bft) NW 315 -4,4 C 5,4 C 0,0 km/h (0 Bft)
08.04.2020 08:06 3,6 C 0,9 C 6,1 C 50 % 1028,1 hPa 0,0 l/m 6,1 km/h (2 Bft) N-NW 337 -5,8 C 3,6 C 3,1 km/h (1 Bft)
08.04.2020 08:04 3,0 C 0,4 C 6,1 C 51 % 1028,1 hPa 0,0 l/m 6,0 km/h (2 Bft) NW 315 -6,1 C 3,0 C 11,4 km/h (2 Bft)
08.04.2020 08:02 3,6 C 0,9 C 6,1 C 51 % 1028,1 hPa 0,0 l/m 5,1 km/h (1 Bft) W-NW 292 -5,6 C 3,6 C 10,4 km/h (2 Bft)
08.04.2020 08:00 3,0 C 1,6 C 6,1 C 52 % 1028,1 hPa 0,0 l/m 4,5 km/h (1 Bft) NW 315 -5,9 C 3,0 C 8,9 km/h (2 Bft)
08.04.2020 07:58 2,7 C 1,1 C 6,1 C 53 % 1028,1 hPa 0,0 l/m 4,0 km/h (1 Bft) W-NW 292 -5,9 C 2,7 C 13,3 km/h (3 Bft)
08.04.2020 07:56 1,1 C -0,3 C 6,1 C 55 % 1028,1 hPa 0,0 l/m 2,9 km/h (1 Bft) W-NW 292 -6,9 C 1,1 C 8,3 km/h (2 Bft)
08.04.2020 07:54 1,5 C -0,9 C 6,1 C 55 % 1028,1 hPa 0,0 l/m 2,9 km/h (1 Bft) SO 135 -6,5 C 1,5 C 2,3 km/h (1 Bft)
08.04.2020 07:52 1,5 C -0,6 C 6,1 C 55 % 1028,1 hPa 0,0 l/m 2,9 km/h (1 Bft) NO 45 -6,5 C 1,5 C 3,3 km/h (1 Bft)
08.04.2020 07:50 1,3 C -0,2 C 6,1 C 56 % 1028,1 hPa 0,0 l/m 3,5 km/h (1 Bft) N-NW 337 -6,5 C 1,3 C 5,2 km/h (1 Bft)
08.04.2020 07:48 0,9 C -1,0 C 6,3 C 56 % 1028,1 hPa 0,0 l/m 2,9 km/h (1 Bft) SO 135 -6,9 C 0,9 C 8,3 km/h (2 Bft)
08.04.2020 07:46 0,3 C -1,8 C 6,3 C 56 % 1027,6 hPa 0,0 l/m 3,4 km/h (1 Bft) N 360 -7,4 C 0,3 C 3,1 km/h (1 Bft)
08.04.2020 07:44 0,3 C -1,7 C 6,3 C 56 % 1027,6 hPa 0,0 l/m 3,4 km/h (1 Bft) W-SW 247 -7,4 C 0,3 C 2,1 km/h (1 Bft)
08.04.2020 07:42 0,2 C -2,0 C 6,3 C 57 % 1027,6 hPa 0,0 l/m 4,2 km/h (1 Bft) O-SO 112 -7,3 C 0,2 C 5,4 km/h (1 Bft)
08.04.2020 07:40 0,2 C -2,2 C 6,3 C 57 % 1027,6 hPa 0,0 l/m 4,2 km/h (1 Bft) NO 45 -7,3 C 0,2 C 8,5 km/h (2 Bft)
08.04.2020 07:38 0,2 C -2,1 C 6,3 C 56 % 1027,6 hPa 0,0 l/m 4,0 km/h (1 Bft) O-NO 67 -7,5 C 0,2 C 0,0 km/h (0 Bft)
08.04.2020 07:36 -0,1 C -1,4 C 6,3 C 56 % 1027,6 hPa 0,0 l/m 4,3 km/h (1 Bft) O-NO 67 -7,8 C -0,1 C 7,0 km/h (2 Bft)
08.04.2020 07:34 0,2 C -1,4 C 6,3 C 56 % 1027,6 hPa 0,0 l/m 4,0 km/h (1 Bft) NW 315 -7,5 C 0,2 C 9,5 km/h (2 Bft)
08.04.2020 07:32 0,2 C -0,9 C 6,3 C 56 % 1027,6 hPa 0,0 l/m 3,2 km/h (1 Bft) W-NW 292 -7,5 C 0,2 C 7,3 km/h (2 Bft)
08.04.2020 07:30 0,1 C -1,0 C 6,3 C 56 % 1027,6 hPa 0,0 l/m 2,9 km/h (1 Bft) S-SW 202 -7,6 C 0,1 C 7,0 km/h (2 Bft)
08.04.2020 07:28 0,2 C -1,4 C 6,3 C 56 % 1027,6 hPa 0,0 l/m 2,9 km/h (1 Bft) O-NO 67 -7,5 C 0,2 C 6,2 km/h (2 Bft)
08.04.2020 07:26 0,6 C -2,0 C 6,4 C 56 % 1027,6 hPa 0,0 l/m 2,7 km/h (1 Bft) O-NO 67 -7,1 C 0,6 C 3,1 km/h (1 Bft)
08.04.2020 07:24 -0,3 C -2,0 C 6,4 C 56 % 1027,6 hPa 0,0 l/m 2,9 km/h (1 Bft) NW 315 -8,0 C -0,3 C 0,0 km/h (0 Bft)
08.04.2020 07:22 -0,5 C -2,5 C 6,4 C 57 % 1027,6 hPa 0,0 l/m 3,1 km/h (1 Bft) W-NW 292 -7,9 C -0,5 C 2,5 km/h (1 Bft)
08.04.2020 07:20 -0,3 C -2,2 C 6,4 C 57 % 1027,6 hPa 0,0 l/m 3,2 km/h (1 Bft) S-SO 157 -7,8 C -0,3 C 4,4 km/h (1 Bft)
08.04.2020 07:18 -0,2 C -2,5 C 6,4 C 57 % 1027,6 hPa 0,0 l/m 2,9 km/h (1 Bft) NW 315 -7,7 C -0,2 C 5,6 km/h (1 Bft)
08.04.2020 07:16 -0,1 C -2,7 C 6,4 C 57 % 1027,6 hPa 0,0 l/m 2,7 km/h (1 Bft) S-SO 157 -7,6 C -0,1 C 6,4 km/h (2 Bft)
08.04.2020 07:14 -0,6 C -2,4 C 6,4 C 57 % 1027,6 hPa 0,0 l/m 1,8 km/h (1 Bft) S-SW 202 -8,0 C -0,6 C 4,1 km/h (1 Bft)
08.04.2020 07:12 -0,6 C -2,7 C 6,4 C 57 % 1027,6 hPa 0,0 l/m 1,3 km/h (1 Bft) SO 135 -8,0 C -0,6 C 2,1 km/h (1 Bft)
08.04.2020 07:10 -0,6 C -2,0 C 6,4 C 56 % 1027,6 hPa 0,0 l/m 1,0 km/h (0 Bft) NW 315 -8,3 C -0,6 C 7,9 km/h (2 Bft)
08.04.2020 07:08 -0,5 C -2,1 C 6,4 C 56 % 1027,6 hPa 0,0 l/m 0,6 km/h (0 Bft) N 360 -8,2 C -0,5 C 2,9 km/h (1 Bft)
08.04.2020 07:06 -0,5 C -2,8 C 6,4 C 57 % 1027,6 hPa 0,0 l/m 0,6 km/h (0 Bft) S-SO 157 -7,9 C -0,5 C 3,1 km/h (1 Bft)
08.04.2020 07:04 -1,0 C -3,5 C 6,4 C 56 % 1027,6 hPa 0,0 l/m 1,0 km/h (0 Bft) O-NO 67 -8,6 C -1,0 C 0,0 km/h (0 Bft)
08.04.2020 07:02 -0,7 C -3,7 C 6,5 C 56 % 1027,6 hPa 0,0 l/m 1,0 km/h (0 Bft) O-NO 67 -8,4 C -0,7 C 0,0 km/h (0 Bft)
08.04.2020 07:00 -0,5 C -4,0 C 6,5 C 56 % 1027,6 hPa 0,0 l/m 1,0 km/h (0 Bft) O-SO 112 -8,2 C -0,5 C 0,0 km/h (0 Bft)
08.04.2020 06:58 -0,9 C -3,5 C 6,5 C 56 % 1027,6 hPa 0,0 l/m 1,3 km/h (1 Bft) O-SO 112 -8,5 C -0,9 C 3,1 km/h (1 Bft)
08.04.2020 06:56 -0,9 C -3,8 C 6,5 C 56 % 1027,6 hPa 0,0 l/m 1,4 km/h (1 Bft) N-NO 22 -8,5 C -0,9 C 0,0 km/h (0 Bft)
08.04.2020 06:54 -0,5 C -4,2 C 6,5 C 56 % 1027,6 hPa 0,0 l/m 2,6 km/h (1 Bft) O-NO 67 -8,2 C -0,5 C 3,3 km/h (1 Bft)
08.04.2020 06:52 -0,7 C -4,0 C 6,5 C 56 % 1027,6 hPa 0,0 l/m 3,1 km/h (1 Bft) O-SO 112 -8,4 C -0,7 C 0,0 km/h (0 Bft)
08.04.2020 06:50 -0,9 C -3,5 C 6,5 C 56 % 1027,6 hPa 0,0 l/m 3,1 km/h (1 Bft) S 180 -8,5 C -0,9 C 0,0 km/h (0 Bft)
08.04.2020 06:48 -1,1 C -2,7 C 6,5 C 56 % 1027,6 hPa 0,0 l/m 3,2 km/h (1 Bft) S 180 -8,7 C -1,1 C 4,6 km/h (1 Bft)
08.04.2020 06:46 -1,3 C -2,9 C 6,5 C 56 % 1027,5 hPa 0,0 l/m 3,4 km/h (1 Bft) S-SO 157 -8,9 C -1,3 C 4,6 km/h (1 Bft)
08.04.2020 06:44 -0,9 C -3,5 C 6,6 C 55 % 1027,5 hPa 0,0 l/m 2,6 km/h (1 Bft) O-NO 67 -8,8 C -0,9 C 9,5 km/h (2 Bft)
08.04.2020 06:42 -0,7 C -3,6 C 6,6 C 55 % 1027,5 hPa 0,0 l/m 2,1 km/h (1 Bft) O-NO 67 -8,6 C -0,7 C 5,6 km/h (1 Bft)
08.04.2020 06:40 -0,6 C -3,6 C 6,6 C 55 % 1027,5 hPa 0,0 l/m 2,4 km/h (1 Bft) O-NO 67 -8,5 C -0,6 C 0,0 km/h (0 Bft)
08.04.2020 06:38 -1,0 C -3,5 C 6,6 C 54 % 1027,5 hPa 0,0 l/m 2,7 km/h (1 Bft) O-NO 67 -9,1 C -1,0 C 2,9 km/h (1 Bft)
08.04.2020 06:36 -1,0 C -2,7 C 6,6 C 54 % 1027,5 hPa 0,0 l/m 2,7 km/h (1 Bft) W 270 -9,1 C -1,0 C 4,8 km/h (1 Bft)
08.04.2020 06:34 -0,5 C -3,5 C 6,6 C 54 % 1027,5 hPa 0,0 l/m 2,7 km/h (1 Bft) O-SO 112 -8,6 C -0,5 C 2,9 km/h (1 Bft)
08.04.2020 06:32 0,1 C -3,5 C 6,6 C 54 % 1027,5 hPa 0,0 l/m 2,6 km/h (1 Bft) O 90 -8,1 C 0,1 C 4,2 km/h (1 Bft)
08.04.2020 06:30 -0,3 C -3,5 C 6,6 C 54 % 1027,5 hPa 0,0 l/m 2,4 km/h (1 Bft) N 360 -8,5 C -0,3 C 2,1 km/h (1 Bft)
08.04.2020 06:28 -0,7 C -3,9 C 6,6 C 54 % 1027,5 hPa 0,0 l/m 1,8 km/h (1 Bft) NO 45 -8,8 C -0,7 C 4,6 km/h (1 Bft)
08.04.2020 06:26 -0,6 C -3,9 C 6,7 C 53 % 1027,5 hPa 0,0 l/m 1,4 km/h (1 Bft) O-NO 67 -9,0 C -0,6 C 4,8 km/h (1 Bft)
08.04.2020 06:24 -0,5 C -3,8 C 6,7 C 53 % 1027,5 hPa 0,0 l/m 1,4 km/h (1 Bft) N-NO 22 -8,9 C -0,5 C 0,0 km/h (0 Bft)
08.04.2020 06:22 -0,7 C -3,2 C 6,7 C 53 % 1027,5 hPa 0,0 l/m 1,9 km/h (1 Bft) O-SO 112 -9,1 C -0,7 C 2,5 km/h (1 Bft)
08.04.2020 06:20 -0,5 C -3,3 C 6,7 C 53 % 1027,5 hPa 0,0 l/m 1,9 km/h (1 Bft) O-SO 112 -8,9 C -0,5 C 2,7 km/h (1 Bft)
08.04.2020 06:18 0,1 C -3,5 C 6,7 C 53 % 1027,5 hPa 0,0 l/m 2,3 km/h (1 Bft) SW 225 -8,3 C 0,1 C 0,0 km/h (0 Bft)
08.04.2020 06:16 -0,1 C -3,1 C 6,7 C 53 % 1027,5 hPa 0,0 l/m 2,7 km/h (1 Bft) W-NW 292 -8,5 C -0,1 C 3,5 km/h (1 Bft)
08.04.2020 06:14 0,2 C -3,8 C 6,7 C 53 % 1027,5 hPa 0,0 l/m 3,1 km/h (1 Bft) NO 45 -8,2 C 0,2 C 7,0 km/h (2 Bft)
08.04.2020 06:12 -0,2 C -3,8 C 6,7 C 53 % 1027,5 hPa 0,0 l/m 2,6 km/h (1 Bft) O-NO 67 -8,6 C -0,2 C 9,5 km/h (2 Bft)
08.04.2020 06:10 0,0 C -3,2 C 6,7 C 52 % 1027,5 hPa 0,0 l/m 0,3 km/h (0 Bft) S 180 -8,7 C 0,0 C 3,3 km/h (1 Bft)
08.04.2020 06:08 0,8 C -3,2 C 6,8 C 51 % 1027,5 hPa 0,0 l/m 0,3 km/h (0 Bft) S 180 -8,2 C 0,8 C 3,3 km/h (1 Bft)
08.04.2020 06:06 0,8 C -3,2 C 6,8 C 51 % 1027,6 hPa 0,0 l/m 0,3 km/h (0 Bft) S 180 -8,2 C 0,8 C 3,3 km/h (1 Bft)
08.04.2020 06:04 0,8 C -3,2 C 6,8 C 51 % 1027,6 hPa 0,0 l/m 0,3 km/h (0 Bft) S 180 -8,2 C 0,8 C 3,3 km/h (1 Bft)
08.04.2020 06:02 0,8 C -3,2 C 6,8 C 51 % 1027,6 hPa 0,0 l/m 0,3 km/h (0 Bft) S 180 -8,2 C 0,8 C 3,3 km/h (1 Bft)
08.04.2020 06:00 0,8 C -3,2 C 6,8 C 51 % 1027,6 hPa 0,0 l/m 0,5 km/h (0 Bft) NW 315 -8,2 C 0,8 C 0,0 km/h (0 Bft)
08.04.2020 05:58 0,6 C -3,3 C 6,8 C 51 % 1027,6 hPa 0,0 l/m 1,0 km/h (0 Bft) W 270 -8,3 C 0,6 C 0,0 km/h (0 Bft)
08.04.2020 05:56 0,8 C -3,3 C 6,8 C 51 % 1027,6 hPa 0,0 l/m 1,3 km/h (1 Bft) O-SO 112 -8,2 C 0,8 C 3,3 km/h (1 Bft)
08.04.2020 05:54 0,9 C -3,0 C 6,8 C 51 % 1027,6 hPa 0,0 l/m 1,4 km/h (1 Bft) N 360 -8,1 C 0,9 C 0,0 km/h (0 Bft)
08.04.2020 05:52 1,1 C -2,5 C 6,8 C 51 % 1027,6 hPa 0,0 l/m 1,8 km/h (1 Bft) O-SO 112 -7,9 C 1,1 C 0,0 km/h (0 Bft)
08.04.2020 05:50 0,9 C -3,0 C 6,8 C 51 % 1027,6 hPa 0,0 l/m 1,6 km/h (1 Bft) NO 45 -8,1 C 0,9 C 2,9 km/h (1 Bft)
08.04.2020 05:48 0,9 C -2,5 C 6,9 C 51 % 1027,6 hPa 0,0 l/m 1,8 km/h (1 Bft) SO 135 -8,1 C 0,9 C 3,5 km/h (1 Bft)
08.04.2020 05:46 0,6 C -3,1 C 6,9 C 51 % 1027,5 hPa 0,0 l/m 1,3 km/h (1 Bft) O-NO 67 -8,3 C 0,6 C 4,1 km/h (1 Bft)
08.04.2020 05:44 0,6 C -3,6 C 6,9 C 50 % 1027,5 hPa 0,0 l/m 1,3 km/h (1 Bft) W-NW 292 -8,6 C 0,6 C 3,5 km/h (1 Bft)
08.04.2020 05:42 0,5 C -3,0 C 6,9 C 50 % 1027,5 hPa 0,0 l/m 1,0 km/h (0 Bft) O-SO 112 -8,7 C 0,5 C 6,2 km/h (2 Bft)
08.04.2020 05:40 0,4 C -2,7 C 6,9 C 50 % 1027,5 hPa 0,0 l/m 1,0 km/h (0 Bft) W 270 -8,8 C 0,4 C 0,0 km/h (0 Bft)
08.04.2020 05:38 0,8 C -2,4 C 6,9 C 50 % 1027,5 hPa 0,0 l/m 1,1 km/h (1 Bft) W-NW 292 -8,4 C 0,8 C 3,3 km/h (1 Bft)
08.04.2020 05:36 0,9 C -2,3 C 6,9 C 50 % 1027,5 hPa 0,0 l/m 1,0 km/h (0 Bft) S 180 -8,3 C 0,9 C 0,0 km/h (0 Bft)
08.04.2020 05:34 0,9 C -2,5 C 6,9 C 50 % 1027,5 hPa 0,0 l/m 1,4 km/h (1 Bft) S-SO 157 -8,3 C 0,9 C 2,5 km/h (1 Bft)
08.04.2020 05:32 0,9 C -2,5 C 6,9 C 50 % 1027,5 hPa 0,0 l/m 1,8 km/h (1 Bft) N-NO 22 -8,3 C 0,9 C 0,0 km/h (0 Bft)
08.04.2020 05:30 0,8 C -2,7 C 6,9 C 49 % 1027,5 hPa 0,0 l/m 1,9 km/h (1 Bft) O-SO 112 -8,7 C 0,8 C 0,0 km/h (0 Bft)
08.04.2020 05:28 0,9 C -2,5 C 7,0 C 49 % 1027,5 hPa 0,0 l/m 2,4 km/h (1 Bft) NO 45 -8,6 C 0,9 C 3,1 km/h (1 Bft)
08.04.2020 05:26 0,6 C -2,4 C 7,0 C 49 % 1027,6 hPa 0,0 l/m 3,4 km/h (1 Bft) N 360 -8,9 C 0,6 C 0,0 km/h (0 Bft)
08.04.2020 05:24 0,9 C -2,1 C 7,0 C 49 % 1027,6 hPa 0,0 l/m 4,0 km/h (1 Bft) S-SW 202 -8,6 C 0,9 C 3,9 km/h (1 Bft)
08.04.2020 05:22 1,0 C -1,7 C 7,0 C 48 % 1027,6 hPa 0,0 l/m 4,3 km/h (1 Bft) N-NO 22 -8,8 C 1,0 C 4,6 km/h (1 Bft)
08.04.2020 05:20 1,0 C -1,6 C 7,0 C 48 % 1027,6 hPa 0,0 l/m 4,7 km/h (1 Bft) S-SO 157 -8,8 C 1,0 C 5,4 km/h (1 Bft)
08.04.2020 05:18 0,9 C -1,5 C 7,0 C 48 % 1027,6 hPa 0,0 l/m 4,8 km/h (1 Bft) S-SW 202 -8,8 C 0,9 C 7,0 km/h (2 Bft)
08.04.2020 05:16 1,1 C -1,1 C 7,0 C 47 % 1027,6 hPa 0,0 l/m 5,1 km/h (1 Bft) W 270 -8,9 C 1,1 C 8,9 km/h (2 Bft)
08.04.2020 05:14 1,1 C -0,6 C 7,0 C 47 % 1027,6 hPa 0,0 l/m 5,1 km/h (1 Bft) SW 225 -8,9 C 1,1 C 7,0 km/h (2 Bft)
08.04.2020 05:12 1,7 C -0,1 C 7,1 C 47 % 1027,6 hPa 0,0 l/m 4,7 km/h (1 Bft) S-SW 202 -8,4 C 1,7 C 7,9 km/h (2 Bft)
08.04.2020 05:10 2,4 C 0,4 C 7,1 C 46 % 1027,6 hPa 0,0 l/m 4,7 km/h (1 Bft) S-SW 202 -8,0 C 2,4 C 4,6 km/h (1 Bft)
08.04.2020 05:08 2,0 C 0,3 C 7,1 C 46 % 1027,6 hPa 0,0 l/m 5,3 km/h (1 Bft) NW 315 -8,4 C 2,0 C 9,7 km/h (2 Bft)
08.04.2020 05:06 2,1 C 0,9 C 7,1 C 46 % 1027,8 hPa 0,0 l/m 4,8 km/h (1 Bft) W 270 -8,3 C 2,1 C 5,2 km/h (1 Bft)
08.04.2020 05:04 2,7 C 0,8 C 7,1 C 46 % 1027,8 hPa 0,0 l/m 5,8 km/h (2 Bft) O-NO 67 -7,7 C 2,7 C 8,5 km/h (2 Bft)
08.04.2020 05:02 3,2 C -0,1 C 7,1 C 44 % 1027,8 hPa 0,0 l/m 6,1 km/h (2 Bft) O-NO 67 -7,9 C 3,2 C 4,2 km/h (1 Bft)
08.04.2020 05:00 3,5 C -0,1 C 7,2 C 44 % 1027,8 hPa 0,0 l/m 7,1 km/h (2 Bft) W 270 -7,6 C 2,8 C 3,7 km/h (1 Bft)
08.04.2020 04:58 3,3 C 1,2 C 7,2 C 44 % 1027,8 hPa 0,0 l/m 7,2 km/h (2 Bft) W 270 -7,8 C 2,5 C 14,1 km/h (3 Bft)
08.04.2020 04:56 5,2 C 1,8 C 7,2 C 42 % 1027,8 hPa 0,0 l/m 7,6 km/h (2 Bft) S-SO 157 -6,6 C 4,1 C 8,1 km/h (2 Bft)
08.04.2020 04:54 6,2 C 3,3 C 7,2 C 42 % 1027,8 hPa 0,0 l/m 8,5 km/h (2 Bft) O 90 -5,7 C 4,5 C 12,2 km/h (2 Bft)
08.04.2020 04:52 7,2 C 2,2 C 7,2 C 42 % 1027,8 hPa 0,0 l/m 8,4 km/h (2 Bft) O-NO 67 -4,8 C 5,6 C 10,2 km/h (2 Bft)
08.04.2020 04:50 6,5 C 1,6 C 7,2 C 43 % 1027,8 hPa 0,0 l/m 9,2 km/h (2 Bft) O 90 -5,2 C 4,3 C 7,7 km/h (2 Bft)
08.04.2020 04:48 7,0 C 2,7 C 7,2 C 42 % 1027,8 hPa 0,0 l/m 10,3 km/h (2 Bft) O-NO 67 -5,0 C 4,1 C 26,3 km/h (4 Bft)
08.04.2020 04:46 7,7 C 4,1 C 7,2 C 42 % 1027,7 hPa 0,0 l/m 10,1 km/h (2 Bft) NO 45 -4,4 C 5,0 C 8,1 km/h (2 Bft)
08.04.2020 04:44 8,5 C 5,1 C 7,2 C 42 % 1027,7 hPa 0,0 l/m 9,2 km/h (2 Bft) O-NO 67 -3,7 C 6,4 C 9,3 km/h (2 Bft)
08.04.2020 04:42 8,3 C 4,7 C 7,2 C 43 % 1027,7 hPa 0,0 l/m 7,4 km/h (2 Bft) O-SO 112 -3,5 C 7,5 C 12,2 km/h (2 Bft)
08.04.2020 04:40 8,1 C 4,7 C 7,2 C 44 % 1027,7 hPa 0,0 l/m 6,6 km/h (2 Bft) O 90 -3,4 C 8,0 C 17,8 km/h (3 Bft)
08.04.2020 04:38 7,9 C 3,5 C 7,2 C 44 % 1027,7 hPa 0,0 l/m 5,1 km/h (1 Bft) S-SO 157 -3,6 C 7,9 C 8,9 km/h (2 Bft)
08.04.2020 04:36 7,3 C 3,3 C 7,2 C 45 % 1027,7 hPa 0,0 l/m 4,8 km/h (1 Bft) O-NO 67 -3,8 C 7,3 C 13,9 km/h (3 Bft)
08.04.2020 04:34 5,5 C 0,8 C 7,2 C 48 % 1027,7 hPa 0,0 l/m 4,3 km/h (1 Bft) NW 315 -4,6 C 5,5 C 7,1 km/h (2 Bft)
08.04.2020 04:32 4,4 C 0,5 C 7,2 C 49 % 1027,7 hPa 0,0 l/m 5,0 km/h (1 Bft) W-NW 292 -5,4 C 4,4 C 2,5 km/h (1 Bft)
08.04.2020 04:30 3,0 C 1,6 C 7,3 C 49 % 1027,7 hPa 0,0 l/m 5,6 km/h (1 Bft) N 360 -6,6 C 3,0 C 6,4 km/h (2 Bft)
08.04.2020 04:28 3,0 C 2,5 C 7,3 C 49 % 1027,7 hPa 0,0 l/m 6,4 km/h (2 Bft) NO 45 -6,6 C 3,0 C 6,4 km/h (2 Bft)
08.04.2020 04:26 3,4 C 1,9 C 7,3 C 50 % 1027,9 hPa 0,0 l/m 6,4 km/h (2 Bft) O 90 -6,0 C 3,4 C 22,6 km/h (4 Bft)
08.04.2020 04:24 3,5 C 0,0 C 7,4 C 50 % 1027,9 hPa 0,0 l/m 6,0 km/h (2 Bft) SO 135 -5,9 C 3,5 C 8,7 km/h (2 Bft)
08.04.2020 04:22 2,4 C -0,5 C 7,4 C 51 % 1027,9 hPa 0,0 l/m 5,8 km/h (2 Bft) NW 315 -6,7 C 2,4 C 9,5 km/h (2 Bft)
08.04.2020 04:20 1,5 C -0,2 C 7,4 C 51 % 1027,9 hPa 0,0 l/m 5,5 km/h (1 Bft) SW 225 -7,5 C 1,5 C 7,3 km/h (2 Bft)
08.04.2020 04:18 2,9 C 0,7 C 7,4 C 51 % 1027,9 hPa 0,0 l/m 5,5 km/h (1 Bft) O 90 -6,2 C 2,9 C 23,6 km/h (4 Bft)
08.04.2020 04:16 4,2 C 0,0 C 7,4 C 51 % 1027,9 hPa 0,0 l/m 3,9 km/h (1 Bft) O 90 -5,0 C 4,2 C 4,1 km/h (1 Bft)
08.04.2020 04:14 2,0 C -1,0 C 7,4 C 52 % 1027,9 hPa 0,0 l/m 3,5 km/h (1 Bft) NO 45 -6,8 C 2,0 C 5,8 km/h (2 Bft)
08.04.2020 04:12 1,8 C 0,1 C 7,4 C 52 % 1027,9 hPa 0,0 l/m 3,2 km/h (1 Bft) N 360 -7,0 C 1,8 C 2,5 km/h (1 Bft)
08.04.2020 04:10 1,1 C -1,4 C 7,5 C 52 % 1027,9 hPa 0,0 l/m 2,9 km/h (1 Bft) O 90 -7,6 C 1,1 C 5,8 km/h (2 Bft)
08.04.2020 04:08 1,5 C -1,2 C 7,5 C 52 % 1027,9 hPa 0,0 l/m 1,9 km/h (1 Bft) W-NW 292 -7,3 C 1,5 C 15,4 km/h (3 Bft)
08.04.2020 04:06 0,9 C -2,0 C 7,5 C 52 % 1027,9 hPa 0,0 l/m 1,9 km/h (1 Bft) W 270 -7,8 C 0,9 C 6,6 km/h (2 Bft)
08.04.2020 04:04 1,4 C -1,9 C 7,5 C 52 % 1027,9 hPa 0,0 l/m 2,1 km/h (1 Bft) W-NW 292 -7,4 C 1,4 C 0,0 km/h (0 Bft)
08.04.2020 04:02 1,6 C -1,3 C 7,5 C 52 % 1027,9 hPa 0,0 l/m 1,8 km/h (1 Bft) S 180 -7,2 C 1,6 C 5,8 km/h (2 Bft)
08.04.2020 04:00 1,4 C -1,9 C 7,5 C 52 % 1027,9 hPa 0,0 l/m 1,3 km/h (1 Bft) O-NO 67 -7,4 C 1,4 C 3,3 km/h (1 Bft)
08.04.2020 03:58 1,4 C -2,5 C 7,5 C 52 % 1027,9 hPa 0,0 l/m 1,4 km/h (1 Bft) O 90 -7,4 C 1,4 C 4,2 km/h (1 Bft)
08.04.2020 03:56 1,5 C -2,3 C 7,5 C 52 % 1027,9 hPa 0,0 l/m 1,8 km/h (1 Bft) O 90 -7,3 C 1,5 C 0,0 km/h (0 Bft)
08.04.2020 03:54 1,2 C -2,5 C 7,6 C 52 % 1027,9 hPa 0,0 l/m 1,8 km/h (1 Bft) O 90 -7,5 C 1,2 C 5,0 km/h (1 Bft)
08.04.2020 03:52 1,2 C -2,7 C 7,6 C 52 % 1027,9 hPa 0,0 l/m 1,6 km/h (1 Bft) O-SO 112 -7,5 C 1,2 C 0,0 km/h (0 Bft)
08.04.2020 03:50 1,4 C -2,5 C 7,6 C 52 % 1027,9 hPa 0,0 l/m 2,3 km/h (1 Bft) S-SO 157 -7,4 C 1,4 C 0,0 km/h (0 Bft)
08.04.2020 03:48 1,4 C -2,0 C 7,6 C 52 % 1027,9 hPa 0,0 l/m 2,3 km/h (1 Bft) S 180 -7,4 C 1,4 C 0,0 km/h (0 Bft)
08.04.2020 03:46 1,6 C -0,9 C 7,6 C 52 % 1028,1 hPa 0,0 l/m 2,1 km/h (1 Bft) W 270 -7,2 C 1,6 C 7,7 km/h (2 Bft)
08.04.2020 03:44 1,5 C -0,9 C 7,6 C 52 % 1028,1 hPa 0,0 l/m 2,1 km/h (1 Bft) S-SO 157 -7,3 C 1,5 C 1,9 km/h (1 Bft)
08.04.2020 03:42 1,6 C -1,9 C 7,6 C 52 % 1028,1 hPa 0,0 l/m 1,8 km/h (1 Bft) NO 45 -7,2 C 1,6 C 3,9 km/h (1 Bft)
08.04.2020 03:40 1,6 C -1,6 C 7,6 C 52 % 1028,1 hPa 0,0 l/m 1,4 km/h (1 Bft) S-SW 202 -7,2 C 1,6 C 4,2 km/h (1 Bft)
08.04.2020 03:38 1,4 C -1,9 C 7,6 C 52 % 1028,1 hPa 0,0 l/m 1,1 km/h (1 Bft) N-NO 22 -7,4 C 1,4 C 0,0 km/h (0 Bft)
08.04.2020 03:36 1,5 C -1,9 C 7,7 C 52 % 1028,1 hPa 0,0 l/m 1,4 km/h (1 Bft) N 360 -7,3 C 1,5 C 3,9 km/h (1 Bft)
08.04.2020 03:34 1,0 C -1,4 C 7,7 C 52 % 1028,1 hPa 0,0 l/m 1,3 km/h (1 Bft) S 180 -7,7 C 1,0 C 3,9 km/h (1 Bft)
08.04.2020 03:32 1,7 C -1,4 C 7,7 C 52 % 1028,1 hPa 0,0 l/m 1,3 km/h (1 Bft) O 90 -7,1 C 1,7 C 0,0 km/h (0 Bft)
08.04.2020 03:30 1,1 C -2,5 C 7,7 C 52 % 1028,1 hPa 0,0 l/m 1,3 km/h (1 Bft) O-NO 67 -7,6 C 1,1 C 4,2 km/h (1 Bft)
08.04.2020 03:28 1,2 C -2,4 C 7,7 C 52 % 1028,1 hPa 0,0 l/m 1,4 km/h (1 Bft) O-SO 112 -7,5 C 1,2 C 0,0 km/h (0 Bft)
08.04.2020 03:26 1,5 C -2,4 C 7,7 C 52 % 1028,2 hPa 0,0 l/m 1,3 km/h (1 Bft) S-SO 157 -7,3 C 1,5 C 4,6 km/h (1 Bft)
08.04.2020 03:24 1,2 C -3,0 C 7,7 C 52 % 1028,2 hPa 0,0 l/m 1,1 km/h (1 Bft) NO 45 -7,5 C 1,2 C 3,7 km/h (1 Bft)
08.04.2020 03:22 1,4 C -2,8 C 7,8 C 51 % 1028,2 hPa 0,0 l/m 1,1 km/h (1 Bft) O-NO 67 -7,6 C 1,4 C 0,0 km/h (0 Bft)
08.04.2020 03:20 1,2 C -2,7 C 7,8 C 51 % 1028,2 hPa 0,0 l/m 1,0 km/h (0 Bft) N 360 -7,8 C 1,2 C 0,0 km/h (0 Bft)
08.04.2020 03:18 1,6 C -2,8 C 7,8 C 51 % 1028,2 hPa 0,0 l/m 0,6 km/h (0 Bft) S-SO 157 -7,4 C 1,6 C 2,5 km/h (1 Bft)
08.04.2020 03:16 1,6 C -2,1 C 7,8 C 51 % 1028,2 hPa 0,0 l/m 0,8 km/h (0 Bft) O-NO 67 -7,4 C 1,6 C 0,0 km/h (0 Bft)
08.04.2020 03:14 1,6 C -1,7 C 7,8 C 51 % 1028,2 hPa 0,0 l/m 1,0 km/h (0 Bft) NW 315 -7,4 C 1,6 C 0,0 km/h (0 Bft)
08.04.2020 03:12 1,5 C -1,2 C 7,8 C 51 % 1028,2 hPa 0,0 l/m 1,1 km/h (1 Bft) N-NO 22 -7,5 C 1,5 C 0,0 km/h (0 Bft)
08.04.2020 03:10 1,8 C -2,8 C 7,9 C 51 % 1028,2 hPa 0,0 l/m 1,0 km/h (0 Bft) NO 45 -7,2 C 1,8 C 2,3 km/h (1 Bft)
08.04.2020 03:08 2,0 C -2,8 C 7,9 C 51 % 1028,2 hPa 0,0 l/m 1,0 km/h (0 Bft) NO 45 -7,1 C 2,0 C 2,3 km/h (1 Bft)
08.04.2020 03:06 2,0 C -2,8 C 7,9 C 51 % 1028,3 hPa 0,0 l/m 1,0 km/h (0 Bft) NO 45 -7,1 C 2,0 C 2,3 km/h (1 Bft)
08.04.2020 03:04 2,0 C -2,8 C 7,9 C 51 % 1028,3 hPa 0,0 l/m 1,0 km/h (0 Bft) NO 45 -7,1 C 2,0 C 2,3 km/h (1 Bft)
08.04.2020 03:02 2,0 C -2,8 C 7,9 C 51 % 1028,3 hPa 0,0 l/m 1,0 km/h (0 Bft) NO 45 -7,1 C 2,0 C 2,3 km/h (1 Bft)
08.04.2020 03:00 2,0 C -2,8 C 7,9 C 51 % 1028,3 hPa 0,0 l/m 0,6 km/h (0 Bft) S 180 -7,1 C 2,0 C 0,0 km/h (0 Bft)
08.04.2020 02:58 2,0 C -2,7 C 7,9 C 50 % 1028,3 hPa 0,0 l/m 0,6 km/h (0 Bft) O-NO 67 -7,3 C 2,0 C 2,7 km/h (1 Bft)
08.04.2020 02:56 1,4 C -2,3 C 7,9 C 51 % 1028,3 hPa 0,0 l/m 0,5 km/h (0 Bft) O-NO 67 -7,6 C 1,4 C 0,0 km/h (0 Bft)
08.04.2020 02:54 1,6 C -1,6 C 7,9 C 51 % 1028,3 hPa 0,0 l/m 0,5 km/h (0 Bft) SW 225 -7,4 C 1,6 C 2,5 km/h (1 Bft)
08.04.2020 02:52 1,5 C -2,3 C 7,9 C 50 % 1028,3 hPa 0,0 l/m 0,0 km/h (0 Bft) N-NW 337 -7,8 C 1,5 C 0,0 km/h (0 Bft)
08.04.2020 02:50 2,0 C -2,5 C 8,1 C 50 % 1028,3 hPa 0,0 l/m 0,2 km/h (0 Bft) S 180 -7,3 C 2,0 C 0,0 km/h (0 Bft)
08.04.2020 02:48 1,6 C -3,0 C 8,1 C 50 % 1028,3 hPa 0,0 l/m 0,8 km/h (0 Bft) O-NO 67 -7,7 C 1,6 C 0,0 km/h (0 Bft)
08.04.2020 02:46 1,8 C -2,5 C 8,1 C 50 % 1028,6 hPa 0,0 l/m 1,0 km/h (0 Bft) NW 315 -7,5 C 1,8 C 0,0 km/h (0 Bft)
08.04.2020 02:44 1,8 C -2,1 C 8,1 C 50 % 1028,6 hPa 0,0 l/m 1,1 km/h (1 Bft) NW 315 -7,5 C 1,8 C 0,0 km/h (0 Bft)
08.04.2020 02:42 1,7 C -2,3 C 8,1 C 50 % 1028,6 hPa 0,0 l/m 1,4 km/h (1 Bft) O 90 -7,6 C 1,7 C 0,0 km/h (0 Bft)
08.04.2020 02:40 2,5 C -2,3 C 8,1 C 50 % 1028,6 hPa 0,0 l/m 1,6 km/h (1 Bft) O-NO 67 -6,8 C 2,5 C 3,3 km/h (1 Bft)
08.04.2020 02:38 2,0 C -2,3 C 8,1 C 50 % 1028,6 hPa 0,0 l/m 1,1 km/h (1 Bft) O-NO 67 -7,3 C 2,0 C 4,1 km/h (1 Bft)
08.04.2020 02:36 2,0 C -2,4 C 8,2 C 49 % 1028,6 hPa 0,0 l/m 0,8 km/h (0 Bft) O-SO 112 -7,6 C 2,0 C 0,0 km/h (0 Bft)
08.04.2020 02:34 2,2 C -2,1 C 8,2 C 49 % 1028,6 hPa 0,0 l/m 0,6 km/h (0 Bft) N-NO 22 -7,4 C 2,2 C 2,7 km/h (1 Bft)
08.04.2020 02:32 1,9 C -1,9 C 8,2 C 50 % 1028,6 hPa 0,0 l/m 0,6 km/h (0 Bft) NW 315 -7,4 C 1,9 C 4,2 km/h (1 Bft)
08.04.2020 02:30 2,0 C -1,7 C 8,2 C 49 % 1028,6 hPa 0,0 l/m 0,2 km/h (0 Bft) O 90 -7,6 C 2,0 C 3,3 km/h (1 Bft)
08.04.2020 02:28 1,8 C -2,5 C 8,2 C 49 % 1028,6 hPa 0,0 l/m 0,2 km/h (0 Bft) N-NW 337 -7,8 C 1,8 C 0,0 km/h (0 Bft)
08.04.2020 02:26 1,9 C -2,5 C 8,2 C 49 % 1028,7 hPa 0,0 l/m 0,3 km/h (0 Bft) N-NW 337 -7,7 C 1,9 C 0,0 km/h (0 Bft)
08.04.2020 02:24 1,9 C -2,3 C 8,2 C 49 % 1028,7 hPa 0,0 l/m 0,5 km/h (0 Bft) N-NO 22 -7,7 C 1,9 C 0,0 km/h (0 Bft)
08.04.2020 02:22 2,2 C -2,0 C 8,3 C 48 % 1028,7 hPa 0,0 l/m 0,8 km/h (0 Bft) NW 315 -7,6 C 2,2 C 0,0 km/h (0 Bft)
08.04.2020 02:20 1,9 C -1,9 C 8,3 C 49 % 1028,7 hPa 0,0 l/m 0,8 km/h (0 Bft) S-SO 157 -7,7 C 1,9 C 2,1 km/h (1 Bft)
08.04.2020 02:18 1,9 C -1,4 C 8,3 C 49 % 1028,7 hPa 0,0 l/m 1,1 km/h (1 Bft) SO 135 -7,7 C 1,9 C 0,0 km/h (0 Bft)
08.04.2020 02:16 2,0 C -1,3 C 8,3 C 48 % 1028,7 hPa 0,0 l/m 1,3 km/h (1 Bft) SW 225 -7,8 C 2,0 C 0,0 km/h (0 Bft)
08.04.2020 02:14 1,9 C -1,0 C 8,2 C 48 % 1028,7 hPa 0,0 l/m 1,0 km/h (0 Bft) SW 225 -7,9 C 1,9 C 2,5 km/h (1 Bft)
08.04.2020 02:12 1,7 C -1,0 C 8,2 C 48 % 1028,7 hPa 0,0 l/m 0,8 km/h (0 Bft) S-SO 157 -8,1 C 1,7 C 4,1 km/h (1 Bft)
08.04.2020 02:10 2,3 C -1,9 C 8,2 C 48 % 1028,7 hPa 0,0 l/m 0,6 km/h (0 Bft) O 90 -7,6 C 2,3 C 2,9 km/h (1 Bft)
08.04.2020 02:08 2,5 C -2,4 C 8,4 C 48 % 1028,7 hPa 0,0 l/m 0,6 km/h (0 Bft) NO 45 -7,4 C 2,5 C 3,5 km/h (1 Bft)
08.04.2020 02:06 2,4 C -2,1 C 8,4 C 47 % 1028,8 hPa 0,0 l/m 0,3 km/h (0 Bft) N-NO 22 -7,7 C 2,4 C 0,0 km/h (0 Bft)
08.04.2020 02:04 2,8 C -2,4 C 8,4 C 47 % 1028,8 hPa 0,0 l/m 0,8 km/h (0 Bft) N-NW 337 -7,4 C 2,8 C 2,1 km/h (1 Bft)
08.04.2020 02:02 2,7 C -2,3 C 8,4 C 47 % 1028,8 hPa 0,0 l/m 1,0 km/h (0 Bft) S-SO 157 -7,5 C 2,7 C 0,0 km/h (0 Bft)
08.04.2020 02:00 2,4 C -2,0 C 8,4 C 47 % 1028,8 hPa 0,0 l/m 1,1 km/h (1 Bft) O-NO 67 -7,7 C 2,4 C 0,0 km/h (0 Bft)
08.04.2020 01:58 2,3 C -2,0 C 8,4 C 47 % 1028,8 hPa 0,0 l/m 1,3 km/h (1 Bft) SO 135 -7,8 C 2,3 C 0,0 km/h (0 Bft)
08.04.2020 01:56 2,3 C -2,0 C 8,4 C 47 % 1028,8 hPa 0,0 l/m 1,8 km/h (1 Bft) W-NW 292 -7,8 C 2,3 C 2,7 km/h (1 Bft)
08.04.2020 01:54 2,7 C -1,3 C 8,5 C 47 % 1028,8 hPa 0,0 l/m 1,6 km/h (1 Bft) O-NO 67 -7,5 C 2,7 C 3,1 km/h (1 Bft)
08.04.2020 01:52 3,0 C -1,3 C 8,5 C 45 % 1028,8 hPa 0,0 l/m 1,8 km/h (1 Bft) NW 315 -7,7 C 3,0 C 0,0 km/h (0 Bft)
08.04.2020 01:50 2,7 C -1,2 C 8,5 C 46 % 1028,8 hPa 0,0 l/m 2,1 km/h (1 Bft) SW 225 -7,7 C 2,7 C 3,1 km/h (1 Bft)
08.04.2020 01:48 2,7 C -0,9 C 8,5 C 46 % 1028,8 hPa 0,0 l/m 2,4 km/h (1 Bft) S-SW 202 -7,7 C 2,7 C 1,9 km/h (1 Bft)
08.04.2020 01:46 2,3 C 0,2 C 8,5 C 46 % 1028,9 hPa 0,0 l/m 1,9 km/h (1 Bft) S 180 -8,1 C 2,3 C 4,1 km/h (1 Bft)
08.04.2020 01:44 2,4 C 0,2 C 8,5 C 46 % 1028,9 hPa 0,0 l/m 1,8 km/h (1 Bft) O-SO 112 -8,0 C 2,4 C 3,5 km/h (1 Bft)
08.04.2020 01:42 3,1 C -1,5 C 8,5 C 44 % 1028,9 hPa 0,0 l/m 1,6 km/h (1 Bft) O 90 -7,9 C 3,1 C 3,9 km/h (1 Bft)
08.04.2020 01:40 2,9 C -1,3 C 8,6 C 46 % 1028,9 hPa 0,0 l/m 1,4 km/h (1 Bft) S-SO 157 -7,6 C 2,9 C 3,5 km/h (1 Bft)
08.04.2020 01:38 2,7 C -1,1 C 8,6 C 45 % 1028,9 hPa 0,0 l/m 1,0 km/h (0 Bft) O-NO 67 -8,0 C 2,7 C 5,0 km/h (1 Bft)
08.04.2020 01:36 3,2 C -1,5 C 8,6 C 44 % 1028,9 hPa 0,0 l/m 1,0 km/h (0 Bft) S-SO 157 -7,9 C 3,2 C 0,0 km/h (0 Bft)
08.04.2020 01:34 3,1 C -0,8 C 8,6 C 44 % 1028,9 hPa 0,0 l/m 1,0 km/h (0 Bft) O-SO 112 -7,9 C 3,1 C 4,4 km/h (1 Bft)
08.04.2020 01:32 3,0 C -0,9 C 8,6 C 43 % 1028,9 hPa 0,0 l/m 0,8 km/h (0 Bft) NW 315 -8,3 C 3,0 C 4,6 km/h (1 Bft)
08.04.2020 01:30 3,0 C -1,1 C 8,6 C 43 % 1028,9 hPa 0,0 l/m 0,6 km/h (0 Bft) W-SW 247 -8,3 C 3,0 C 0,0 km/h (0 Bft)
08.04.2020 01:28 3,4 C -0,9 C 8,6 C 43 % 1028,9 hPa 0,0 l/m 0,6 km/h (0 Bft) S-SW 202 -8,0 C 3,4 C 0,0 km/h (0 Bft)
08.04.2020 01:26 3,6 C -0,2 C 8,7 C 43 % 1029,0 hPa 0,0 l/m 0,5 km/h (0 Bft) S-SW 202 -7,8 C 3,6 C 3,1 km/h (1 Bft)
08.04.2020 01:24 3,4 C -1,1 C 8,7 C 43 % 1029,0 hPa 0,0 l/m 0,8 km/h (0 Bft) O-NO 67 -8,0 C 3,4 C 0,0 km/h (0 Bft)
08.04.2020 01:22 3,6 C -0,5 C 8,7 C 42 % 1029,0 hPa 0,0 l/m 1,0 km/h (0 Bft) NO 45 -8,1 C 3,6 C 0,0 km/h (0 Bft)
08.04.2020 01:20 3,4 C -0,2 C 8,7 C 42 % 1029,0 hPa 0,0 l/m 1,3 km/h (1 Bft) S 180 -8,3 C 3,4 C 0,0 km/h (0 Bft)
08.04.2020 01:18 3,7 C -0,7 C 8,7 C 42 % 1029,0 hPa 0,0 l/m 1,4 km/h (1 Bft) SW 225 -8,0 C 3,7 C 0,0 km/h (0 Bft)
08.04.2020 01:16 3,6 C -1,1 C 8,7 C 41 % 1029,0 hPa 0,0 l/m 1,8 km/h (1 Bft) SO 135 -8,4 C 3,6 C 0,0 km/h (0 Bft)
08.04.2020 01:14 3,6 C -0,7 C 8,7 C 41 % 1029,0 hPa 0,0 l/m 1,8 km/h (1 Bft) W-NW 292 -8,4 C 3,6 C 4,8 km/h (1 Bft)
08.04.2020 01:12 3,6 C -0,1 C 8,8 C 41 % 1029,0 hPa 0,0 l/m 1,6 km/h (1 Bft) SO 135 -8,4 C 3,6 C 0,0 km/h (0 Bft)
08.04.2020 01:10 3,7 C 0,5 C 8,8 C 40 % 1029,0 hPa 0,0 l/m 1,8 km/h (1 Bft) W-NW 292 -8,6 C 3,7 C 5,0 km/h (1 Bft)
08.04.2020 01:08 3,6 C 0,1 C 8,8 C 40 % 1029,0 hPa 0,0 l/m 2,1 km/h (1 Bft) O-NO 67 -8,7 C 3,6 C 3,5 km/h (1 Bft)
08.04.2020 01:06 3,8 C 0,6 C 8,8 C 40 % 1029,1 hPa 0,0 l/m 2,4 km/h (1 Bft) NW 315 -8,5 C 3,8 C 5,2 km/h (1 Bft)
08.04.2020 01:04 3,9 C 1,0 C 8,8 C 39 % 1029,1 hPa 0,0 l/m 2,7 km/h (1 Bft) W 270 -8,8 C 3,9 C 0,0 km/h (0 Bft)
08.04.2020 01:02 3,6 C 0,9 C 8,8 C 39 % 1029,1 hPa 0,0 l/m 3,1 km/h (1 Bft) S-SW 202 -9,0 C 3,6 C 2,9 km/h (1 Bft)
08.04.2020 01:00 3,3 C 1,4 C 8,8 C 39 % 1029,1 hPa 0,0 l/m 3,1 km/h (1 Bft) SW 225 -9,3 C 3,3 C 5,4 km/h (1 Bft)
08.04.2020 00:58 3,7 C 1,5 C 8,9 C 39 % 1029,1 hPa 0,0 l/m 2,6 km/h (1 Bft) SW 225 -8,9 C 3,7 C 5,0 km/h (1 Bft)
08.04.2020 00:56 4,0 C 1,4 C 8,9 C 38 % 1029,1 hPa 0,0 l/m 2,6 km/h (1 Bft) S 180 -9,0 C 4,0 C 4,2 km/h (1 Bft)
08.04.2020 00:54 4,5 C 0,5 C 8,9 C 38 % 1029,1 hPa 0,0 l/m 3,1 km/h (1 Bft) O-SO 112 -8,6 C 4,5 C 7,3 km/h (2 Bft)
08.04.2020 00:52 5,2 C 0,8 C 8,9 C 37 % 1029,1 hPa 0,0 l/m 3,2 km/h (1 Bft) S-SO 157 -8,3 C 5,2 C 4,2 km/h (1 Bft)
08.04.2020 00:50 4,6 C 1,0 C 8,9 C 38 % 1029,1 hPa 0,0 l/m 3,2 km/h (1 Bft) NW 315 -8,5 C 4,6 C 7,9 km/h (2 Bft)
08.04.2020 00:48 4,4 C 1,5 C 8,9 C 37 % 1029,1 hPa 0,0 l/m 2,9 km/h (1 Bft) NW 315 -9,0 C 4,4 C 12,6 km/h (3 Bft)
08.04.2020 00:46 4,4 C 1,7 C 9,0 C 37 % 1029,1 hPa 0,0 l/m 3,1 km/h (1 Bft) S-SW 202 -9,0 C 4,4 C 7,3 km/h (2 Bft)
08.04.2020 00:44 4,9 C 2,1 C 9,0 C 37 % 1029,1 hPa 0,0 l/m 2,1 km/h (1 Bft) O-NO 67 -8,5 C 4,9 C 11,8 km/h (2 Bft)
08.04.2020 00:42 4,7 C 1,4 C 9,0 C 37 % 1029,1 hPa 0,0 l/m 2,3 km/h (1 Bft) S-SO 157 -8,7 C 4,7 C 4,8 km/h (1 Bft)
08.04.2020 00:40 5,0 C 1,2 C 9,0 C 36 % 1029,1 hPa 0,0 l/m 1,8 km/h (1 Bft) W 270 -8,8 C 5,0 C 0,0 km/h (0 Bft)
08.04.2020 00:38 5,0 C 0,6 C 9,0 C 36 % 1029,1 hPa 0,0 l/m 2,1 km/h (1 Bft) S-SW 202 -8,8 C 5,0 C 2,1 km/h (1 Bft)
08.04.2020 00:36 4,9 C 1,3 C 9,0 C 37 % 1029,1 hPa 0,0 l/m 2,1 km/h (1 Bft) O-NO 67 -8,5 C 4,9 C 3,5 km/h (1 Bft)
08.04.2020 00:34 5,1 C 1,3 C 9,0 C 36 % 1029,1 hPa 0,0 l/m 1,9 km/h (1 Bft) NW 315 -8,7 C 5,1 C 5,0 km/h (1 Bft)
08.04.2020 00:32 4,6 C 1,0 C 9,1 C 36 % 1029,1 hPa 0,0 l/m 1,8 km/h (1 Bft) W 270 -9,2 C 4,6 C 6,6 km/h (2 Bft)
08.04.2020 00:30 5,0 C 1,6 C 9,1 C 36 % 1029,1 hPa 0,0 l/m 1,8 km/h (1 Bft) O-SO 112 -8,8 C 5,0 C 2,1 km/h (1 Bft)
08.04.2020 00:28 5,1 C 2,6 C 9,1 C 36 % 1029,1 hPa 0,0 l/m 1,9 km/h (1 Bft) W 270 -8,7 C 5,1 C 3,3 km/h (1 Bft)
08.04.2020 00:26 5,2 C 2,6 C 9,1 C 36 % 1029,1 hPa 0,0 l/m 1,8 km/h (1 Bft) S-SO 157 -8,6 C 5,2 C 3,3 km/h (1 Bft)
08.04.2020 00:24 5,2 C 2,3 C 9,1 C 36 % 1029,1 hPa 0,0 l/m 1,8 km/h (1 Bft) S-SO 157 -8,6 C 5,2 C 4,1 km/h (1 Bft)
08.04.2020 00:22 5,5 C 2,9 C 9,1 C 36 % 1029,1 hPa 0,0 l/m 2,1 km/h (1 Bft) SO 135 -8,4 C 5,5 C 3,9 km/h (1 Bft)
08.04.2020 00:20 5,4 C 2,6 C 9,1 C 35 % 1029,1 hPa 0,0 l/m 1,8 km/h (1 Bft) S-SW 202 -8,8 C 5,4 C 6,2 km/h (2 Bft)
08.04.2020 00:18 5,2 C 2,2 C 9,2 C 36 % 1029,1 hPa 0,0 l/m 2,1 km/h (1 Bft) S-SW 202 -8,6 C 5,2 C 5,8 km/h (2 Bft)
08.04.2020 00:16 6,1 C 2,1 C 9,2 C 37 % 1029,1 hPa 0,0 l/m 2,1 km/h (1 Bft) O 90 -7,5 C 6,1 C 2,9 km/h (1 Bft)
08.04.2020 00:14 6,3 C 1,8 C 9,2 C 37 % 1029,1 hPa 0,0 l/m 2,4 km/h (1 Bft) O-SO 112 -7,3 C 6,3 C 1,9 km/h (1 Bft)
08.04.2020 00:12 6,3 C 1,8 C 9,2 C 37 % 1029,1 hPa 0,0 l/m 2,9 km/h (1 Bft) O 90 -7,3 C 6,3 C 3,1 km/h (1 Bft)
08.04.2020 00:10 7,1 C 3,0 C 9,3 C 37 % 1029,1 hPa 0,0 l/m 2,4 km/h (1 Bft) O 90 -6,6 C 7,1 C 12,2 km/h (2 Bft)
08.04.2020 00:08 7,1 C 3,0 C 9,3 C 37 % 1029,1 hPa 0,0 l/m 2,4 km/h (1 Bft) O 90 -6,6 C 7,1 C 12,2 km/h (2 Bft)
08.04.2020 00:06 7,1 C 3,0 C 9,3 C 37 % 1029,8 hPa 0,0 l/m 2,4 km/h (1 Bft) O 90 -6,6 C 7,1 C 12,2 km/h (2 Bft)
08.04.2020 00:04 7,1 C 3,0 C 9,3 C 37 % 1029,8 hPa 0,0 l/m 2,4 km/h (1 Bft) O 90 -6,6 C 7,1 C 12,2 km/h (2 Bft)
08.04.2020 00:02 7,1 C 3,0 C 9,3 C 37 % 1029,8 hPa 0,0 l/m 2,4 km/h (1 Bft) O 90 -6,6 C 7,1 C 12,2 km/h (2 Bft)
08.04.2020 00:00 7,1 C 3,0 C 9,3 C 37 % 1029,8 hPa 0,0 l/m 1,9 km/h (1 Bft) O-NO 67 -6,6 C 7,1 C 4,2 km/h (1 Bft)
_ Min-Zeit 06:46 06:54 08:56 16:10 18:28 - 02:52 - - 19:52 06:46 00:40
Minimum _ -1,3 C -4,2 C 5,9 C 13 % 1023,4 hPa - 0,0 km/h (0 Bft) - - -13,1 C -1,3 C 0,0 km/h (0 Bft)
_ Max-Zeit 16:08 15:32 18:56 07:06 00:00 00:00 12:46 - - 09:18 16:32 11:28
Maximum _ 19,7 C 26,6 C 11,2 C 57 % 1029,8 hPa 0,0 l/m 11,7 km/h
NO (2 Bft)
- - -1,8 C 19,6 C 29,0 km/h
O-SO (5 Bft)
Durchschnitt _ 10,6 C 10,8 C 8,5 C 30 % 1026,7 hPa #0,0 l/m 4,9 km/h (1 Bft) O-NO - -8,4 C 10,3 C 7,8 km/h (2 Bft)